GEFSSGP_500_meanwind_000.txt.gz
Wind_Speed
9 13 14 13 12 12 15 19 22 18 20 19 17 15 15 18 18 19 22 25 26 25 21 25 26 18 20 20 18 14 9 8 8 8 9 8 7 9 10 11 11 12 13 12 13 12 13 14 15
6 9 12 14 14 13 16 20 23 21 21 21 20 17 14 17 22 24 25 26 26 25 24 24 25 17 24 27 21 16 11 11 11 12 12 13 13 14 14 14 14 13 13 13 15 15 15 15 16
7 7 8 10 12 14 17 21 25 24 22 21 21 21 21 23 27 29 27 23 19 18 18 16 12 15 27 32 23 18 15 15 15 17 17 19 20 19 18 17 15 15 15 16 17 19 18 17 19
7 8 7 7 9 13 16 19 22 23 23 24 23 23 26 27 30 30 25 14 14 11 6 3 9 17 25 28 25 21 19 19 20 22 21 24 23 26 22 20 18 17 20 22 21 21 18 17 21
8 8 7 6 4 6 12 15 16 20 25 24 23 22 19 15 17 21 20 16 18 6 5 6 4 15 24 26 28 25 22 22 24 24 26 25 24 26 16 19 18 19 23 23 25 25 18 19 23
9 9 6 4 1 3 5 9 14 16 18 16 14 12 10 8 11 16 18 18 14 3 2 1 3 6 14 10 17 22 22 27 25 23 27 27 27 29 22 21 22 22 23 23 27 24 24 28 31
11 10 7 5 2 3 6 8 11 12 11 6 4 8 8 9 10 11 12 11 10 8 5 8 9 10 11 12 16 18 21 23 24 27 28 27 24 26 26 24 26 29 28 29 34 32 30 34 39
12 11 10 10 8 9 11 10 7 7 2 3 5 8 8 8 9 9 10 9 8 9 7 11 14 15 15 18 21 23 24 25 27 28 29 28 27 30 30 28 32 35 33 33 38 37 35 37 40
14 12 14 15 15 17 16 12 9 6 6 4 5 8 9 11 11 11 11 11 10 9 10 11 13 15 18 20 22 25 28 28 28 28 28 29 28 29 30 31 35 38 38 38 40 39 39 39 40
17 16 17 17 17 17 16 13 10 10 9 8 9 9 10 11 10 10 10 12 12 11 12 13 13 16 19 21 22 25 26 27 27 27 26 26 26 27 28 30 33 35 37 36 36 36 38 38 39
18 17 17 20 20 19 18 17 14 11 8 9 9 8 9 12 11 11 12 13 12 12 11 12 13 15 16 19 21 19 20 22 23 23 21 22 23 24 26 28 30 32 34 35 35 35 36 36 36
18 17 16 18 21 21 21 21 17 12 12 12 10 8 10 11 11 11 11 11 12 12 12 12 11 10 11 13 15 16 16 18 19 20 21 23 24 24 26 28 29 31 33 35 35 36 37 38 39
19 17 15 16 20 23 23 22 19 12 14 13 13 12 10 8 10 13 13 12 12 12 14 14 13 13 14 15 16 18 19 20 21 23 24 25 27 28 29 31 33 35 36 38 39 40 41 42 43
19 18 15 15 18 22 24 21 19 15 15 16 14 13 8 8 12 17 17 15 15 16 17 17 17 17 19 20 20 21 22 22 23 24 26 27 28 28 29 31 33 36 38 39 41 42 43 44 45
20 19 16 16 20 22 22 22 22 18 17 17 16 16 11 11 14 18 19 18 17 18 19 20 20 20 21 22 22 22 22 23 25 27 28 30 31 32 33 34 35 36 39 40 42 44 45 46 46
20 20 19 21 25 24 23 21 22 21 19 20 21 20 13 11 12 15 17 16 16 18 20 21 23 23 23 23 24 24 24 24 25 28 30 31 32 34 36 37 39 39 41 43 45 47 47 48 48
22 23 24 25 28 25 23 18 21 22 20 22 24 19 15 13 12 14 18 21 22 22 23 23 25 25 24 24 24 24 24 24 26 30 33 35 36 39 41 43 45 46 48 49 51 53 54 55 55
25 24 24 25 28 26 23 18 18 20 23 26 25 17 18 18 17 17 24 29 28 27 27 28 28 24 24 25 27 29 31 31 33 38 43 46 48 48 49 52 56 57 56 55 56 57 59 60 63
26 24 23 25 25 25 25 22 21 23 25 26 24 22 21 22 25 28 32 32 31 29 29 29 31 28 29 30 32 34 38 42 46 50 53 55 56 55 53 54 57 56 52 49 48 49 50 51 54
25 25 25 25 23 25 27 28 25 22 23 26 28 26 26 28 32 36 37 35 32 31 33 33 32 33 35 37 39 41 46 49 51 52 56 58 57 56 54 53 53 52 49 49 51 56 58 59 61
26 26 25 25 25 25 28 28 23 23 26 28 29 31 32 34 37 39 36 34 33 34 35 36 36 37 40 44 47 49 52 53 56 58 58 57 59 61 60 56 58 61 63 68 75 75 78 78 74
26 27 26 25 25 27 27 27 24 25 28 30 32 34 36 37 38 36 32 30 32 35 36 38 39 42 46 51 52 53 55 57 59 58 59 62 63 65 67 69 71 75 77 80 84 86 82 81 83
28 28 27 25 26 27 28 29 28 28 30 33 34 35 34 33 33 33 33 32 34 35 37 39 43 46 48 51 54 57 56 58 62 65 68 69 69 73 78 78 81 85 87 89 88 86 88 85 85
28 29 28 29 29 28 28 29 30 29 30 31 32 34 34 32 34 34 35 35 35 38 39 41 45 47 50 55 60 63 65 68 71 73 76 77 79 83 85 86 86 84 83 84 84 84 85 84 85
28 27 25 26 27 27 26 29 29 30 30 30 31 32 34 36 36 36 35 34 33 36 39 43 46 52 58 63 66 69 72 75 77 78 80 83 85 85 83 81 77 72 70 71 72 70 68 66 65
27 27 26 27 28 29 30 31 33 33 32 33 34 34 34 32 30 31 32 33 35 40 44 49 55 61 65 68 71 73 75 78 80 82 84 84 81 79 74 68 64 64 62 61 62 60 61 63 61
26 27 27 28 31 33 36 37 37 35 36 37 35 33 31 28 28 31 35 37 41 47 52 56 61 65 67 69 72 76 79 81 83 83 79 76 73 67 62 58 53 55 60 63 64 61 61 63 62
23 25 26 29 33 36 40 43 42 39 37 36 33 31 30 30 31 34 39 43 49 53 57 61 65 69 73 76 78 81 83 82 79 76 76 71 65 63 61 57 59 63 67 68 62 59 58 59 58
25 26 27 30 32 37 40 41 40 38 36 32 31 31 32 34 38 42 47 50 53 57 60 65 70 74 76 79 80 80 77 75 73 70 66 63 61 62 61 63 64 65 63 56 51 51 51 50 47
30 30 31 34 37 38 40 41 38 36 33 31 32 34 37 41 45 48 51 54 58 62 67 71 75 78 79 78 76 72 68 63 61 61 61 61 60 59 59 58 55 50 45 41 38 38 37 35 35

GEFSSGP_500_meanwind_006.txt.gz
Wind_Speed
9 10 10 9 10 10 10 13 15 19 19 19 21 22 22 21 20 19 19 20 20 19 19 18 15 15 16 18 20 21 20 20 19 19 18 17 16 16 15 15 15 16 17 18 18 17 16 15 14
6 7 9 11 12 11 12 13 15 17 19 19 21 23 24 24 23 21 21 22 21 18 16 15 14 14 15 19 22 23 22 21 21 20 20 20 19 18 18 18 19 20 21 21 21 19 19 18 17
3 3 2 4 10 13 14 15 15 17 19 20 20 21 22 23 24 23 20 17 14 14 14 13 13 14 16 19 23 25 24 23 23 22 22 22 22 22 23 24 24 25 25 25 25 24 23 22 20
4 3 1 1 5 11 14 13 14 16 17 18 19 20 22 24 23 21 16 12 11 13 13 11 11 14 17 19 23 26 26 26 26 26 25 25 24 25 27 27 29 30 30 32 32 31 28 25 24
8 8 6 4 3 4 5 8 10 14 16 18 20 21 22 22 20 15 11 9 9 10 10 9 10 14 18 19 23 26 28 28 28 29 28 29 28 28 30 31 32 32 33 34 33 34 31 28 27
11 9 9 7 6 5 3 3 6 11 13 15 18 18 18 16 12 9 7 6 5 7 8 8 10 12 14 16 20 24 26 29 28 27 25 26 27 28 30 30 29 28 27 26 27 28 28 29 27
11 9 10 8 7 6 4 1 5 8 11 11 13 13 13 12 9 7 5 5 6 6 7 11 13 14 15 16 17 18 18 20 22 22 24 27 29 29 27 25 25 26 24 24 25 25 25 25 26
9 9 9 7 7 5 5 3 5 10 13 14 13 10 10 10 9 8 6 6 6 7 9 11 14 16 17 19 20 21 22 22 23 24 25 27 29 29 30 29 28 26 25 25 25 26 28 28 28
7 7 5 4 4 3 3 2 3 7 10 12 11 8 8 9 10 10 9 8 9 10 11 13 15 17 19 21 22 23 25 26 26 26 26 27 28 28 28 28 28 28 28 28 27 28 29 30 30
7 6 5 6 5 4 3 1 3 4 7 7 8 8 9 12 12 10 11 11 11 12 12 14 16 18 20 22 24 25 28 29 29 29 28 28 28 28 27 27 28 29 29 29 30 30 31 32 32
9 8 8 9 10 8 6 4 6 7 8 8 8 10 12 15 14 12 11 12 12 13 14 15 17 19 21 22 24 26 28 28 28 28 27 27 28 28 27 27 28 29 30 30 31 32 33 34 34
11 11 11 12 13 12 9 8 9 9 10 10 10 13 15 17 16 14 13 13 13 14 15 16 18 19 20 22 24 26 28 28 27 27 28 29 30 30 30 31 31 32 33 34 35 36 37 38 38
14 14 15 16 17 16 13 12 12 13 13 13 14 16 17 18 18 16 16 16 16 17 18 20 21 22 22 24 25 27 28 29 30 30 32 32 34 34 34 34 33 34 35 36 36 38 39 40 41
14 15 17 19 19 18 17 17 15 15 15 15 16 17 18 19 19 19 19 19 20 22 22 22 23 23 23 24 26 26 28 30 32 34 35 36 37 39 39 39 39 40 40 40 40 41 42 43 43
16 16 19 21 21 20 18 19 16 16 15 16 17 17 18 18 19 21 22 22 22 22 22 21 21 22 24 25 27 28 30 32 34 36 37 39 41 42 44 45 46 46 46 46 46 47 48 49 50
18 19 20 22 22 21 19 18 17 17 16 17 17 17 17 18 20 23 24 22 22 22 22 21 20 22 25 28 29 30 32 33 35 37 37 38 39 42 44 45 47 48 50 52 53 55 56 57 57
20 20 20 23 22 21 19 18 20 19 16 16 17 18 18 20 23 24 24 24 25 25 25 24 22 24 27 29 29 29 30 33 34 35 36 38 41 43 45 47 49 52 55 57 58 58 59 60 61
22 21 20 22 23 21 21 21 21 18 15 17 20 21 21 21 23 25 26 27 28 30 30 29 28 28 31 30 28 29 30 32 33 35 39 42 45 47 49 51 53 55 57 57 58 58 60 62 63
22 21 21 22 22 21 23 23 22 20 18 20 23 24 25 24 24 26 28 29 32 34 34 33 32 31 35 34 29 30 31 33 35 39 42 45 48 51 52 55 58 59 61 63 65 67 69 70 70
22 21 22 23 22 23 24 24 24 24 22 21 23 25 24 25 28 29 30 31 33 35 36 36 35 35 36 36 35 36 37 38 41 43 45 47 50 53 58 62 65 68 71 74 76 76 77 79 80
22 22 22 24 24 24 24 23 24 25 27 26 26 26 27 29 31 32 33 34 34 35 37 38 38 38 38 39 42 42 44 47 47 47 48 50 55 59 63 66 69 72 75 79 80 81 83 83 84
23 23 24 24 22 19 21 15 25 23 24 26 27 28 30 32 33 34 35 36 35 36 38 39 40 42 43 45 47 48 51 51 51 52 55 59 62 66 69 71 74 77 80 82 83 84 84 83 82
24 24 24 24 23 22 22 16 22 24 23 25 26 28 30 32 33 34 35 36 37 39 40 41 43 45 46 47 49 51 53 54 56 59 63 66 69 71 74 76 79 80 81 80 79 77 76 76 75
24 24 25 25 22 21 20 17 18 23 22 24 26 27 29 32 34 36 37 39 40 41 42 43 44 46 47 49 51 53 56 59 62 65 68 71 74 76 78 80 82 81 79 77 74 71 70 69 68
24 23 23 21 21 19 23 20 22 24 23 25 26 28 31 33 36 38 40 41 42 42 42 42 42 44 46 49 52 56 59 63 67 70 73 76 78 80 82 83 82 80 75 71 68 66 65 64 64
23 22 21 20 18 18 27 23 26 24 25 26 28 30 32 34 35 36 36 37 37 37 37 39 42 45 49 53 57 61 64 67 71 74 78 81 83 84 84 82 78 72 66 64 63 62 61 60 59
24 24 22 23 23 22 23 27 25 24 26 27 28 29 31 32 31 30 30 31 32 34 37 41 45 50 54 58 62 66 69 72 77 80 83 85 85 84 80 75 66 60 58 58 57 55 53 51 50
26 24 26 26 24 24 22 25 25 25 26 30 32 33 34 32 31 30 31 33 36 39 43 47 51 55 59 63 67 71 75 79 82 84 85 84 81 76 68 59 54 54 54 53 51 47 44 43 41
26 26 26 24 23 23 21 24 31 29 31 33 35 36 35 33 33 35 36 39 42 45 49 53 57 61 65 70 74 78 81 83 84 84 81 75 66 58 51 50 50 49 47 45 42 40 39 37 36
29 28 26 25 26 26 25 30 34 33 34 37 39 39 37 37 38 39 40 43 46 50 53 58 62 68 72 77 80 83 83 83 79 73 64 54 46 44 44 44 42 40 38 37 36 35 35 35 33

GEFSSGP_500_meanwind_012.txt.gz
Wind_Speed
3 4 4 3 3 6 9 6 12 21 21 22 19 19 23 21 22 23 24 27 24 25 25 25 24 24 23 22 22 23 22 22 22 22 22 22 22 22 21 21 21 20 20 19 19 19 18 18 19
4 4 5 4 5 11 9 9 24 24 22 12 12 20 24 20 21 21 23 26 25 25 24 23 22 21 21 21 22 22 22 22 22 23 23 23 23 24 24 24 23 23 22 21 21 22 22 22 23
5 5 5 6 9 8 4 18 26 21 16 10 20 24 20 18 20 20 21 24 24 22 21 19 19 19 20 21 21 21 21 22 23 24 25 25 25 25 26 26 26 26 26 26 26 26 27 27 28
6 7 9 10 10 6 11 18 20 20 16 16 21 22 16 17 18 19 20 20 19 17 17 17 18 19 20 19 20 20 22 23 24 26 27 27 28 27 28 29 29 30 31 31 31 32 33 33 33
9 11 14 15 2 10 15 15 13 14 16 15 15 20 18 17 17 17 16 15 15 14 15 15 17 18 18 19 19 19 21 22 24 26 28 29 30 30 31 31 32 33 33 34 34 34 35 37 37
11 14 20 8 8 10 7 9 8 9 11 12 14 18 18 18 17 15 14 13 13 15 16 15 16 16 17 18 18 18 18 19 21 24 25 26 28 29 29 31 33 33 32 32 31 31 31 30 33
4 12 14 1 10 6 6 6 6 6 9 9 12 21 19 17 15 15 14 14 14 15 16 15 15 16 18 19 20 21 20 20 21 23 25 26 27 27 27 28 29 31 31 31 30 29 29 31 31
6 12 14 2 7 7 8 5 7 8 11 13 17 21 19 17 16 16 17 17 16 17 15 14 14 16 18 19 20 21 22 23 24 25 27 27 28 29 29 29 28 29 29 29 30 30 30 30 31
10 16 11 3 7 8 8 5 8 10 10 16 22 22 19 18 17 18 20 19 18 16 16 15 14 16 17 18 20 21 23 24 25 27 27 28 29 29 29 28 28 28 28 29 29 29 29 29 30
8 12 2 12 7 5 7 7 10 11 9 13 18 21 21 18 16 19 21 21 16 16 18 15 15 17 18 20 21 23 24 26 27 28 29 29 28 28 28 27 27 27 28 29 30 30 31 31 32
9 4 12 16 15 10 8 9 11 8 13 15 18 19 22 19 20 23 21 20 19 20 22 22 21 22 21 22 24 25 26 28 30 31 31 32 31 30 29 29 29 29 30 31 32 33 34 35 35
10 10 13 13 13 12 8 10 12 10 14 16 19 25 27 28 27 27 25 24 23 25 26 25 24 25 26 26 26 28 29 30 32 33 34 34 34 34 33 32 31 31 31 32 33 33 35 36 37
14 12 14 15 13 11 11 12 13 12 13 16 20 28 34 30 28 28 26 24 26 27 28 27 26 27 28 29 28 30 31 32 33 34 35 35 36 36 36 36 35 35 35 35 35 36 37 38 40
17 15 15 18 15 13 14 13 14 15 15 16 22 26 29 28 27 28 26 26 28 28 28 27 26 27 27 27 28 29 32 34 35 37 38 39 38 38 37 36 36 37 39 40 41 42 42 43 43
20 19 19 18 15 14 15 13 11 14 18 18 22 24 27 27 26 28 29 28 29 30 30 27 23 24 25 27 28 30 33 35 37 40 42 43 42 40 38 37 38 39 41 44 46 48 49 49 50
20 20 18 14 14 15 17 15 7 13 17 18 20 20 26 28 28 30 32 31 31 31 27 21 18 21 26 28 31 33 35 37 39 41 43 44 44 41 39 40 41 43 45 48 50 51 52 52 53
20 18 15 13 14 17 20 17 11 18 20 21 19 18 25 27 28 30 30 32 32 32 22 17 24 24 27 29 31 31 33 35 39 41 43 44 44 43 43 44 45 47 49 52 53 53 54 55 56
17 13 14 17 13 19 24 23 18 20 23 22 18 17 26 30 30 29 30 33 34 35 34 41 39 36 36 36 35 35 35 37 39 42 44 45 45 46 48 48 49 51 52 53 54 55 57 59 62
18 17 17 14 16 22 25 24 21 23 25 22 18 22 30 31 29 28 34 37 40 43 46 47 45 45 45 44 43 41 41 42 43 44 45 46 48 50 49 50 51 52 54 56 58 60 62 65 66
21 23 22 22 21 26 28 24 24 27 26 24 24 28 31 33 33 34 37 38 41 43 46 48 50 51 50 49 48 48 48 49 49 50 49 49 51 51 51 53 55 57 58 60 63 66 67 68 70
26 26 23 20 18 25 29 24 27 30 26 24 25 27 31 34 36 34 35 37 39 42 45 48 50 52 53 52 52 52 53 54 54 55 54 53 52 53 56 59 61 62 64 65 67 70 72 73 74
28 23 22 22 21 22 26 20 27 33 31 27 26 27 29 31 34 35 35 37 39 42 44 46 48 50 51 53 54 55 55 56 56 57 57 58 60 63 66 68 69 70 71 72 73 75 78 80 81
25 21 20 22 25 25 24 22 27 35 36 32 28 27 29 32 34 35 37 38 40 42 43 45 47 48 49 51 52 53 53 55 56 58 60 63 66 70 73 75 77 77 78 79 80 82 83 85 86
23 22 24 25 24 26 24 24 29 38 38 32 29 29 33 36 37 37 37 39 40 41 42 43 44 45 45 46 48 50 52 55 58 61 64 67 70 74 77 80 82 83 85 86 86 86 86 85 82
25 24 26 26 25 25 21 24 31 41 41 36 34 36 38 40 39 38 37 38 38 39 39 40 40 42 43 45 48 51 54 57 60 63 67 71 75 78 82 84 86 87 88 87 85 82 77 70 62
27 26 26 23 21 19 20 28 38 39 38 38 37 38 40 39 37 37 36 37 38 38 38 39 40 43 45 48 50 53 56 59 63 67 71 75 78 80 82 83 83 82 78 74 68 61 54 48 45
24 25 23 24 25 25 25 29 32 35 35 37 38 39 40 37 36 38 38 39 39 39 40 41 43 45 48 50 53 55 58 62 67 69 71 72 72 70 68 65 61 58 53 48 44 41 40 39 39
24 23 23 26 28 30 28 30 36 36 37 38 39 41 40 38 39 42 42 42 41 41 42 43 45 47 49 52 54 57 62 65 66 64 62 59 54 49 45 43 40 38 37 36 36 36 36 36 37
28 28 29 30 28 29 30 32 38 37 35 36 39 40 39 40 43 46 45 44 43 44 45 46 47 49 51 53 56 60 63 62 57 54 50 46 42 39 37 36 35 34 33 33 33 34 35 34 34
34 31 28 31 33 31 29 34 40 40 41 42 41 41 41 43 47 48 47 46 46 46 47 48 49 51 53 55 59 61 58 51 47 44 42 40 38 37 36 36 35 34 34 34 34 33 32 30 30

GEFSSGP_500_meanwind_018.txt.gz
Wind_Speed
9 11 14 15 14 14 15 13 10 6 8 11 14 20 26 25 24 25 24 23 21 19 18 19 20 20 20 20 21 21 21 21 21 21 21 22 22 22 22 22 22 22 23 23 23 23 23 23 24
12 16 18 16 11 11 12 10 6 7 11 14 17 22 24 23 23 23 21 19 17 16 17 18 18 18 17 17 17 18 18 19 18 19 20 21 22 23 23 23 23 24 24 24 25 25 26 26 28
14 17 17 14 10 8 5 5 3 8 15 19 21 22 23 21 18 17 16 15 14 14 15 15 15 15 15 15 15 16 16 16 16 17 19 21 22 23 24 25 25 26 27 28 29 29 30 31 32
15 17 16 13 11 8 4 6 10 14 18 20 21 20 17 14 12 13 13 12 12 12 13 13 14 14 14 14 15 15 14 14 15 16 18 20 22 24 25 27 28 29 31 32 33 33 34 35 37
17 18 16 13 11 6 4 10 17 21 18 17 15 13 12 13 12 12 12 12 12 12 13 14 14 14 14 14 14 14 14 14 14 15 16 18 20 23 25 26 28 29 31 32 33 34 35 37 38
18 17 15 12 8 3 8 14 18 18 16 12 11 12 14 15 13 12 13 13 14 14 14 14 13 13 13 14 14 14 15 15 15 15 16 16 17 19 21 23 24 25 27 27 28 29 30 29 29
18 16 12 8 3 3 10 16 18 17 15 12 12 14 15 15 14 14 14 14 15 17 17 15 13 12 12 12 13 15 16 16 16 17 17 17 17 18 19 20 21 21 22 23 23 24 25 25 26
17 13 10 6 3 2 10 16 18 19 17 15 14 15 16 16 16 16 13 15 18 18 17 14 12 12 12 12 13 15 17 18 18 18 19 19 19 19 20 20 21 21 22 22 23 24 24 24 25
17 15 13 10 7 4 11 17 19 19 19 18 18 18 19 20 19 18 16 19 20 18 17 15 13 13 14 14 15 16 19 20 21 21 21 22 22 22 22 22 23 24 24 25 25 26 26 26 26
17 18 14 10 7 8 13 17 18 19 20 20 21 22 24 24 23 22 22 22 20 17 16 17 17 16 15 16 17 19 21 23 23 23 23 24 24 25 25 25 26 26 27 27 27 28 29 29 29
17 18 14 10 9 11 15 16 17 19 19 21 23 24 26 26 25 24 23 20 18 17 19 21 20 17 16 16 19 21 22 23 23 23 23 24 25 26 27 27 28 28 29 29 29 29 30 31 31
19 19 16 13 15 18 19 20 20 20 20 21 23 25 26 25 23 23 22 20 18 19 21 21 20 16 13 14 17 19 20 21 22 23 24 26 27 29 30 31 31 30 30 32 33 32 32 33 33
22 22 19 16 17 22 24 25 25 24 23 23 23 25 26 25 24 24 24 24 22 21 22 22 19 16 13 14 16 18 21 23 25 26 28 29 31 32 32 33 32 32 33 34 35 36 36 36 37
24 24 21 18 18 21 25 27 26 25 24 24 24 26 27 26 26 26 26 26 26 25 24 21 20 23 20 18 20 21 23 24 26 28 29 31 32 34 34 35 35 35 35 36 38 39 41 42 43
24 23 20 17 16 17 20 21 22 23 25 25 25 27 27 27 28 28 28 29 31 29 27 25 29 28 26 26 25 25 26 26 27 30 31 32 34 36 38 39 40 40 41 41 41 43 45 47 47
24 22 17 14 12 12 16 15 14 18 22 24 25 27 28 29 29 30 31 32 32 32 33 35 34 36 34 32 30 32 31 30 31 33 34 34 36 38 39 41 43 44 45 46 47 48 49 50 51
23 20 13 10 8 9 13 14 14 17 21 24 26 28 31 32 33 33 34 33 34 35 35 37 38 39 37 35 34 34 33 33 34 35 36 37 38 40 41 42 44 45 46 47 49 50 51 53 55
21 20 16 14 12 13 16 19 19 22 24 26 28 30 32 34 35 35 34 34 34 34 36 39 40 39 38 37 36 35 35 35 36 37 37 38 40 41 42 43 44 46 48 50 52 53 55 58 60
25 24 22 20 16 15 17 21 23 26 28 30 31 33 34 34 34 33 33 33 34 35 37 39 39 39 39 39 38 38 38 38 39 40 40 41 42 43 45 46 48 51 53 55 56 59 62 64 67
26 26 24 23 18 16 17 17 21 27 31 33 34 35 35 33 32 31 32 33 34 35 37 38 38 39 39 39 39 40 40 41 42 43 43 44 46 47 49 51 53 55 58 61 63 66 68 71 72
26 25 25 25 23 21 21 21 23 29 33 35 37 36 33 30 29 30 32 32 33 34 36 37 37 38 39 40 41 42 43 44 44 45 47 48 50 52 54 56 57 60 62 64 66 67 69 70 72
25 21 23 26 28 27 27 28 29 33 36 37 37 33 30 29 30 32 33 32 33 34 35 35 37 39 40 42 43 45 46 47 48 50 51 53 55 57 59 60 62 64 65 66 66 65 65 65 66
24 21 23 26 29 31 33 35 35 38 39 38 35 32 31 32 33 34 34 33 33 34 35 36 38 40 43 45 47 48 50 51 53 55 56 58 60 61 63 64 65 65 65 63 62 61 60 59 58
23 23 26 30 33 35 32 37 41 41 40 38 36 35 34 35 36 37 36 35 36 37 38 38 40 43 46 48 50 52 53 55 56 58 59 61 62 64 64 64 64 63 60 58 56 56 55 54 54
27 28 29 33 35 34 30 36 40 41 42 41 40 39 38 39 40 41 40 40 40 40 41 42 43 46 48 51 53 54 56 57 58 60 61 62 63 64 63 62 60 55 52 51 51 51 51 51 51
27 29 31 32 32 30 30 35 35 36 39 39 39 39 39 40 41 42 43 44 42 43 44 44 46 48 50 53 55 56 57 58 60 61 62 62 63 62 60 56 50 47 46 47 48 48 49 50 51
26 29 30 32 32 31 32 33 34 33 34 35 36 36 35 36 36 38 40 40 42 43 45 46 47 49 52 55 56 57 58 60 61 62 62 62 61 58 52 47 43 43 44 45 47 48 50 51 51
29 28 30 34 35 36 36 36 36 35 34 34 35 35 35 34 34 34 36 38 41 43 45 46 47 50 54 56 58 59 61 62 63 62 61 59 56 50 44 41 41 42 44 46 48 50 51 52 52
29 30 32 34 36 37 36 35 33 37 39 40 40 40 39 38 38 38 38 40 42 44 44 46 49 52 56 58 60 62 63 63 62 60 59 55 48 42 39 39 41 43 46 49 51 52 53 53 53
32 30 30 34 35 36 37 35 33 35 38 41 42 42 42 42 41 41 40 41 43 43 44 47 50 54 58 61 63 64 63 62 61 59 53 46 41 38 38 40 43 46 49 52 53 53 53 53 52

GEFSSGP_500_meanwind_024.txt.gz
Wind_Speed
10 13 14 14 13 13 12 11 10 9 9 9 11 14 17 20 21 21 20 19 18 17 16 15 15 14 14 13 12 12 12 13 13 14 14 14 15 16 16 17 17 18 19 19 20 20 21 22 23
11 13 13 13 11 11 10 8 8 9 9 10 12 14 17 19 19 19 17 15 14 13 13 12 11 10 9 9 9 8 9 10 11 12 12 13 14 15 16 17 18 20 21 21 22 22 23 24 24
12 13 14 12 11 9 7 6 7 7 8 10 11 13 15 16 15 15 13 12 10 10 10 9 9 8 7 7 7 7 7 7 8 9 11 12 13 14 16 17 19 20 22 23 24 24 25 26 27
13 15 14 12 10 8 5 5 5 4 6 8 10 12 12 13 13 13 11 9 8 8 8 9 9 9 8 7 6 6 5 5 6 7 8 9 11 12 14 16 18 20 21 23 25 26 26 27 28
14 15 14 12 10 9 8 6 5 4 6 9 10 11 11 12 12 12 10 8 8 9 10 10 10 9 8 7 6 5 5 4 4 5 6 7 9 10 12 14 16 17 19 21 22 23 25 26 27
15 16 15 11 9 9 10 8 6 4 7 10 11 11 11 12 13 12 11 10 10 11 11 11 10 9 8 7 7 6 6 5 5 5 6 7 8 9 11 12 13 15 16 18 19 21 23 24 25
16 15 15 11 10 11 11 9 6 5 8 9 10 11 12 13 14 14 14 14 14 14 12 12 11 9 9 8 8 8 8 8 9 9 9 10 10 11 12 13 13 14 15 17 18 20 22 23 25
14 15 14 13 12 12 11 9 7 6 9 10 11 12 13 15 16 17 17 15 15 14 12 12 10 10 10 10 10 10 10 11 12 12 13 13 13 14 14 15 15 16 17 18 19 21 22 24 25
12 14 13 13 13 13 12 10 8 8 10 12 14 14 15 16 17 17 17 17 16 15 13 11 11 10 10 10 10 11 11 12 14 14 14 15 15 16 16 17 18 19 19 20 21 22 23 25 26
12 13 11 12 13 14 13 12 11 11 12 14 15 16 17 18 18 17 17 18 18 17 15 12 11 10 10 10 11 11 12 13 14 15 16 17 18 19 19 20 21 21 22 22 23 24 25 26 27
14 14 12 13 14 15 15 15 15 15 16 17 18 19 21 20 19 17 17 17 19 18 18 16 13 13 11 11 11 12 13 15 16 17 18 19 20 21 22 22 23 24 25 25 26 27 28 29 30
18 18 16 16 16 17 19 19 19 18 18 19 21 23 23 22 20 18 17 17 19 19 18 17 15 15 14 12 11 12 14 16 19 20 21 22 23 23 24 25 26 27 28 29 30 31 32 33 34
22 21 18 18 19 20 21 22 21 20 20 21 23 24 24 23 21 19 18 18 19 19 19 17 15 15 15 13 12 13 16 18 20 22 24 24 25 25 26 27 28 29 30 31 32 33 35 36 38
26 23 20 20 21 23 24 24 24 23 23 24 25 26 26 25 21 19 19 20 21 20 20 19 18 18 16 15 14 15 18 20 22 23 24 24 25 25 26 27 28 29 30 32 33 35 37 38 39
28 25 23 24 25 26 26 26 27 26 27 28 28 29 27 25 21 20 21 22 23 23 21 20 20 19 19 18 18 19 19 21 22 22 22 23 23 24 26 28 30 31 33 35 36 38 39 41 42
30 28 26 27 27 27 27 27 27 29 30 30 30 29 26 23 21 21 22 24 25 24 22 22 21 21 22 21 20 19 19 20 21 21 22 23 24 26 28 30 32 34 36 38 40 41 43 44 46
32 31 28 28 28 29 31 30 29 31 32 31 30 28 25 22 21 22 24 26 27 26 24 23 23 23 23 22 21 21 21 22 23 24 25 26 28 30 32 34 36 38 40 42 44 45 47 48 49
34 33 30 28 30 32 34 33 31 31 32 31 30 27 24 21 22 23 25 27 28 26 25 25 25 25 25 24 24 24 25 26 28 29 30 31 33 34 36 38 41 43 45 47 48 50 51 52 53
36 35 33 29 31 35 36 36 35 34 33 32 30 27 24 23 23 24 26 28 28 26 26 27 27 28 29 28 28 28 30 31 33 34 35 36 38 39 41 43 46 48 49 51 52 53 54 55 56
38 38 35 31 33 38 39 39 38 37 35 32 30 28 26 24 24 25 27 28 28 27 28 30 31 32 33 33 33 34 35 36 37 38 39 40 42 44 46 48 50 52 53 54 55 56 57 57 58
39 37 34 33 36 41 42 43 41 39 38 34 30 28 26 25 25 27 29 29 29 29 31 33 35 36 38 39 39 40 40 40 40 41 43 44 45 48 50 52 54 55 56 56 56 57 57 57 56
39 36 36 36 39 42 44 46 43 42 40 36 31 28 26 26 28 31 32 32 31 32 34 36 39 41 42 43 43 44 43 42 42 44 45 46 48 51 54 57 59 59 58 58 57 57 56 55 53
36 35 39 40 42 44 45 48 47 44 41 36 32 30 29 30 31 33 34 34 34 35 37 39 42 43 44 45 46 46 45 44 45 46 47 49 52 55 59 61 62 61 60 59 58 56 54 51 48
36 37 40 41 42 45 43 47 49 45 41 37 34 33 33 34 35 35 35 35 36 37 39 40 43 44 45 46 46 45 46 46 47 48 50 53 56 59 63 64 63 62 60 58 56 53 49 45 43
35 35 38 41 42 43 40 45 46 42 39 37 36 36 37 37 37 37 37 36 36 38 39 41 43 44 45 45 45 46 48 49 49 50 53 56 59 62 64 64 62 60 57 55 51 47 44 42 42
32 34 37 40 41 41 40 43 41 38 37 37 36 36 37 37 37 37 36 36 36 37 39 41 43 44 44 46 47 48 50 50 50 51 55 58 61 63 63 61 58 56 53 50 47 44 43 43 44
31 35 36 39 40 42 42 42 40 37 35 34 34 34 34 34 34 35 34 34 35 37 40 42 45 46 47 47 48 50 50 50 50 54 58 61 62 62 60 57 54 52 49 46 44 44 44 46 48
30 33 37 39 41 43 43 42 39 35 33 33 33 33 33 34 34 34 34 35 37 40 43 45 48 49 50 50 50 50 49 50 54 58 60 61 61 58 56 54 51 48 46 45 45 45 47 50 53
27 31 35 39 42 44 46 43 38 35 33 33 33 33 34 34 36 37 38 39 41 43 45 46 49 52 53 52 50 49 50 52 56 59 59 58 56 55 54 51 48 45 44 45 47 49 52 55 58
31 32 35 38 41 44 47 45 39 37 35 34 33 34 35 35 35 35 38 41 43 45 47 48 51 52 52 51 49 48 50 53 56 56 55 54 53 53 50 47 45 44 45 48 50 53 56 59 61

GEFSSGP_500_meanwind_030.txt.gz
Wind_Speed
19 19 18 16 13 10 8 9 8 8 8 8 8 9 8 7 7 7 8 8 8 8 7 8 8 9 9 9 10 10 11 11 12 12 12 12 12 11 11 10 11 11 11 12 12 13 13 13 14
18 19 18 16 12 6 7 8 7 8 7 8 8 8 7 7 7 8 8 7 7 7 6 7 7 8 8 8 8 8 8 9 9 10 10 11 11 11 11 11 12 12 13 13 13 14 14 15 15
15 16 15 14 12 9 8 8 8 7 6 7 6 6 6 7 8 9 8 8 7 6 6 6 6 7 8 8 7 6 6 6 7 8 8 9 10 10 11 12 12 13 13 14 15 15 16 17 18
12 13 13 12 11 11 9 8 7 6 5 5 5 5 6 7 9 9 9 8 7 7 6 6 6 7 6 6 5 4 4 4 5 6 7 8 8 9 10 11 12 13 14 15 16 16 17 18 19
9 10 11 11 11 11 9 7 6 6 6 5 4 5 6 8 9 10 9 8 7 7 6 7 7 7 6 5 4 4 3 3 4 4 5 6 7 9 10 11 12 13 14 15 16 17 17 18 19
8 9 11 12 12 11 10 8 7 7 6 4 3 5 7 9 9 10 9 8 7 6 7 7 6 6 5 4 4 4 4 4 4 4 5 6 8 9 10 12 13 14 14 15 16 17 17 18 18
7 9 12 14 14 12 10 9 9 8 6 4 3 4 7 9 10 10 10 9 7 6 6 6 5 5 4 4 5 5 5 5 5 6 6 8 9 10 12 13 13 14 15 16 17 18 18 19 20
7 9 11 13 13 12 9 9 8 7 6 5 3 4 6 9 10 11 11 10 9 8 7 6 6 5 5 5 6 6 6 6 7 7 8 9 10 11 12 13 14 15 16 17 18 19 20 21 21
8 10 12 13 14 12 9 9 7 6 6 5 4 5 6 9 10 11 11 11 10 9 7 6 5 6 5 6 6 6 7 8 8 9 10 11 12 12 13 14 15 16 17 18 19 20 21 22 23
10 11 13 13 13 12 10 9 7 7 7 7 7 7 7 8 10 12 12 11 11 10 9 8 7 6 6 6 7 7 8 9 10 11 12 13 14 14 15 16 17 17 18 19 20 21 21 22 22
11 13 12 13 13 12 11 10 8 8 8 8 8 8 8 8 10 12 12 12 11 11 10 10 9 8 8 7 8 8 9 10 11 12 13 14 15 16 17 17 18 18 19 19 19 20 21 22 23
14 13 13 13 13 13 13 11 11 10 8 10 10 10 10 9 11 12 12 12 11 11 11 11 10 10 10 8 8 9 9 10 12 13 14 15 16 17 17 17 17 17 18 19 20 21 22 23 25
19 17 16 16 16 16 14 13 13 14 13 13 13 13 12 12 13 13 14 13 13 12 12 12 12 12 11 10 9 9 9 11 12 13 14 15 15 15 15 16 17 17 18 20 21 22 24 26 28
23 21 20 20 20 19 18 17 17 18 16 16 17 16 16 15 16 16 16 15 14 14 14 14 13 13 12 11 10 10 10 11 12 13 13 14 15 15 16 16 17 18 20 21 22 24 27 29 32
26 25 24 25 25 24 21 22 23 22 21 20 20 20 19 19 19 19 19 17 17 17 16 16 14 14 13 12 11 11 12 12 13 14 15 16 16 17 17 18 19 20 21 23 25 27 30 32 35
29 29 28 31 30 28 25 24 29 26 25 24 23 23 23 23 22 23 22 20 20 20 19 18 17 16 15 14 13 13 13 14 15 17 18 19 20 20 21 21 22 23 25 26 28 30 33 35 38
32 32 32 33 34 33 31 29 35 30 30 29 28 27 27 27 26 26 25 23 23 23 22 21 19 18 18 17 16 16 16 17 19 20 22 23 23 24 25 26 27 28 29 30 32 34 37 40 42
34 36 37 37 38 36 37 38 38 35 34 34 32 31 30 30 29 27 27 26 26 25 25 24 23 22 21 20 19 19 20 21 22 24 25 26 27 28 29 30 31 32 34 35 37 40 42 44 47
38 37 37 38 41 38 42 43 42 40 38 37 36 34 33 32 30 29 29 29 29 29 29 27 26 25 25 24 23 23 24 25 26 27 28 29 31 32 33 34 35 36 38 40 42 44 46 49 51
35 36 37 38 40 41 45 46 45 44 42 40 39 37 36 34 32 31 31 32 32 32 33 32 30 30 29 28 27 27 27 28 29 30 31 32 34 35 36 37 39 40 42 43 45 48 50 53 56
35 35 35 37 40 42 45 46 46 46 44 43 42 40 38 36 34 33 33 34 35 35 35 35 35 35 33 31 31 31 32 33 32 33 34 36 37 38 39 40 42 44 45 47 49 52 54 57 59
34 34 35 36 39 40 44 44 41 46 43 41 41 40 39 38 36 34 34 35 36 37 37 38 38 37 36 34 34 34 35 35 36 38 39 40 41 42 44 45 46 48 50 51 53 55 57 59 61
34 35 36 37 39 41 44 44 39 45 43 39 38 38 39 38 38 36 35 37 39 39 40 40 40 40 38 37 37 38 38 39 40 42 44 46 46 47 49 50 50 51 52 54 56 58 60 61 61
31 33 35 37 39 42 41 42 39 38 41 37 37 37 37 38 38 38 38 39 40 41 41 42 42 41 40 40 40 40 41 42 45 47 49 50 50 51 53 53 53 53 54 56 58 60 60 61 61
29 30 32 34 36 37 35 40 38 36 38 36 35 35 35 36 36 37 37 37 39 40 41 41 41 40 41 41 42 42 42 44 47 48 49 51 53 54 54 54 53 53 55 58 59 60 60 60 60
29 30 31 31 28 26 29 34 32 36 36 34 33 32 32 33 33 33 33 34 35 37 38 39 39 40 40 41 41 42 44 46 46 47 50 51 53 54 53 52 52 54 57 58 59 60 60 59 59
28 29 30 32 33 33 33 32 33 35 32 31 30 30 30 31 31 30 30 31 32 33 34 35 37 38 39 40 41 42 43 45 47 50 52 53 55 53 52 53 54 55 56 57 58 59 59 58 58
28 28 30 32 33 33 32 29 27 27 26 27 28 28 28 28 28 28 28 29 30 32 33 35 36 38 39 40 42 43 45 47 50 51 53 53 52 52 52 53 53 54 55 56 57 57 57 57 56
29 30 30 30 30 29 29 26 25 28 27 27 27 27 28 28 27 27 28 29 30 31 33 35 36 37 39 41 43 45 46 49 50 51 52 51 51 52 52 52 53 54 55 56 56 56 56 56 56
31 31 31 32 31 31 31 28 28 32 30 29 28 29 29 29 29 29 30 31 32 33 35 37 38 39 41 43 45 47 49 51 53 52 51 51 52 52 52 53 53 54 54 54 54 54 55 56 57

GEFSSGP_500_meanwind_036.txt.gz
Wind_Speed
20 19 17 13 9 5 4 2 12 14 16 15 14 16 19 16 16 15 16 15 12 13 11 12 11 11 11 11 11 11 11 11 12 13 15 16 17 17 17 17 16 16 15 16 16 15 15 16 17
22 20 17 14 11 5 3 9 14 19 15 12 12 13 14 12 13 13 12 11 9 9 9 8 8 8 8 8 9 9 9 9 10 11 12 14 15 16 16 16 16 15 16 16 16 16 16 16 17
22 22 19 16 13 5 5 10 12 19 15 13 13 11 10 9 10 10 9 8 6 7 7 7 7 7 8 8 9 9 9 9 9 10 10 11 12 13 14 14 14 14 15 15 15 15 16 16 17
19 19 18 16 11 5 9 8 8 16 13 10 12 10 8 8 8 7 6 6 5 6 7 8 8 8 9 9 9 9 9 9 9 9 9 10 10 11 11 11 12 12 13 13 14 15 15 16 17
15 14 14 14 10 7 7 10 12 15 11 8 10 10 8 8 8 7 6 6 6 6 7 8 9 9 10 10 10 9 9 9 9 9 9 9 10 10 10 10 11 11 12 12 13 14 15 15 16
12 13 13 11 7 6 9 14 15 13 11 5 8 11 9 9 9 8 8 7 7 7 7 8 9 10 10 10 10 9 9 9 10 10 10 11 11 11 11 11 11 12 12 13 13 14 15 15 16
12 15 14 11 4 8 12 15 14 13 7 4 6 11 11 11 10 10 9 8 7 7 7 8 9 10 11 11 10 10 10 10 11 11 11 12 12 12 12 13 13 13 13 14 15 15 16 17 17
12 14 17 14 8 10 14 14 13 13 9 7 6 13 13 13 12 12 11 10 9 8 7 8 8 9 10 10 10 10 11 11 12 12 12 12 13 13 13 14 14 14 14 15 15 16 17 17 18
10 12 15 14 7 11 14 13 12 13 11 7 9 15 13 13 12 13 13 12 11 10 9 8 9 10 10 10 11 11 12 12 12 12 12 13 13 14 14 14 14 15 15 16 16 17 17 18 18
10 13 13 8 7 14 14 14 13 12 11 8 11 13 11 10 11 12 13 13 12 12 11 10 11 11 11 11 11 12 12 12 12 13 13 14 14 14 14 14 15 15 16 16 17 17 17 17 17
11 15 15 11 18 21 17 14 14 14 14 14 16 15 8 11 13 13 13 13 13 14 14 13 13 12 12 12 13 13 13 13 13 14 14 14 14 14 14 14 15 16 16 16 17 16 16 17 17
14 17 16 16 21 26 22 16 16 17 18 20 23 21 10 11 15 14 14 14 14 14 15 15 15 15 15 15 15 15 14 14 14 15 15 15 15 15 15 15 15 16 16 17 17 17 17 19 20
17 18 17 17 19 22 22 19 18 17 20 23 24 20 14 16 17 16 16 15 16 16 16 16 16 17 17 17 17 17 16 16 15 15 16 16 16 17 17 17 18 18 18 18 19 20 20 22 22
20 21 21 20 20 20 21 20 19 18 20 24 24 19 17 18 20 19 20 19 18 18 19 19 18 18 19 19 19 19 19 18 18 18 18 18 18 19 19 19 20 21 22 22 23 24 24 26 26
25 25 24 23 21 20 20 21 19 18 21 25 25 20 19 22 25 24 23 21 21 20 21 22 21 20 21 21 22 22 22 22 21 21 21 22 21 22 23 23 23 24 25 26 28 28 29 30 31
27 28 27 23 22 21 22 22 17 17 23 28 27 24 24 27 28 28 27 24 23 22 23 24 25 24 24 25 25 25 25 25 25 25 25 25 26 26 26 26 27 28 29 29 31 33 34 36 36
28 28 26 24 22 20 23 23 16 19 27 31 30 27 27 28 29 30 30 28 26 25 24 26 28 27 28 29 29 29 29 29 29 29 29 29 30 30 31 30 31 32 32 33 35 36 37 39 40
25 25 23 22 19 22 25 26 21 22 29 32 31 29 29 30 32 32 33 32 29 27 27 28 30 30 31 32 33 33 34 34 34 35 35 33 33 35 35 34 34 35 36 37 38 39 41 43 45
24 22 20 20 18 23 29 31 29 25 30 32 32 32 32 31 35 35 36 34 31 31 31 31 32 33 34 36 37 37 38 39 39 39 40 38 37 37 37 37 36 36 38 40 41 43 45 47 49
26 27 26 25 23 25 31 35 35 32 31 33 35 35 35 34 37 40 38 40 37 35 33 33 35 35 37 39 40 41 42 43 43 43 42 41 39 38 38 39 39 39 42 43 45 47 48 50 53
26 28 29 29 28 30 32 36 39 39 36 35 38 41 40 38 40 44 44 43 41 38 35 35 36 37 39 41 43 44 44 44 45 45 45 43 40 38 40 39 40 42 44 46 47 49 50 53 55
27 27 29 31 31 33 33 36 36 35 32 31 34 38 39 37 38 42 43 42 40 38 37 36 37 38 40 42 44 46 47 47 46 47 46 44 42 42 42 41 43 45 46 46 48 50 52 54 56
25 23 24 25 29 33 34 36 35 30 29 29 30 35 37 36 36 38 39 38 38 38 37 37 37 39 41 43 45 47 48 48 47 47 46 45 43 42 43 43 44 46 47 49 51 53 55 56 56
21 21 23 25 26 31 29 30 33 28 28 27 27 31 34 34 35 35 35 34 35 36 36 36 38 40 41 43 44 46 47 47 47 47 46 46 45 44 44 45 46 47 49 51 54 56 56 56 57
20 20 20 21 22 23 18 22 24 20 21 24 26 31 34 34 35 37 36 34 34 34 35 36 37 39 41 42 44 45 46 46 47 47 46 46 46 45 46 48 49 50 52 54 56 57 56 57 58
21 20 19 19 17 17 15 17 17 18 21 25 30 34 36 37 37 37 36 34 34 33 34 36 37 39 41 42 43 44 45 46 46 46 47 47 47 47 48 50 51 53 55 58 58 58 58 59 59
22 22 19 20 21 23 22 21 19 20 23 26 29 30 31 32 30 31 32 33 32 33 34 36 37 38 40 41 43 44 45 45 45 46 47 47 48 49 51 53 55 57 59 59 59 59 60 60 61
23 21 22 23 24 25 24 21 19 20 22 24 24 25 26 28 27 30 31 31 31 33 34 35 36 37 39 41 42 44 45 45 46 46 46 48 50 52 55 56 57 59 60 61 61 61 62 62 62
24 23 24 25 24 24 23 19 18 23 24 26 24 25 28 30 33 34 32 32 32 33 34 35 37 38 40 42 43 45 46 46 47 48 49 51 53 55 56 58 60 61 61 63 64 64 63 62 62
25 24 23 26 27 27 27 26 24 27 26 26 28 32 37 40 40 37 35 34 33 34 36 37 39 40 41 42 44 46 47 48 49 51 53 55 56 57 58 59 60 61 62 64 64 63 61 61 61

GEFSSGP_500_meanwind_042.txt.gz
Wind_Speed
20 19 17 15 13 10 8 9 6 4 7 11 14 17 19 18 16 13 11 11 11 11 10 9 9 9 9 10 10 11 12 13 14 15 17 18 19 19 19 20 20 20 20 20 21 21 21 21 21
22 20 18 17 15 13 11 11 8 5 9 12 14 15 15 14 12 11 9 9 9 8 7 6 6 6 6 7 7 8 9 10 11 12 13 15 16 17 18 19 19 20 20 21 21 21 21 21 21
22 21 19 17 16 16 12 10 7 5 10 12 13 14 13 10 9 9 8 7 6 6 5 5 5 5 6 6 7 8 8 8 9 10 11 12 14 15 17 18 19 19 20 20 20 21 21 21 21
21 19 18 17 17 17 13 10 7 6 9 12 14 13 10 7 7 7 7 6 6 5 5 4 4 5 5 6 6 6 7 8 8 9 10 11 12 13 15 16 17 18 19 19 19 20 20 20 20
17 17 16 16 17 17 15 11 8 7 10 12 14 12 9 6 6 7 7 7 7 6 5 5 5 5 5 5 6 6 7 7 8 9 9 10 11 12 13 14 15 16 17 18 18 18 18 19 19
14 14 15 17 18 17 13 10 7 8 10 13 13 11 9 7 7 8 8 8 7 7 6 6 6 5 5 6 6 6 7 7 8 9 9 10 11 12 12 13 14 15 16 17 17 17 17 18 19
13 13 16 20 20 16 14 11 6 6 11 14 15 13 9 8 8 8 9 9 8 7 7 7 6 6 6 6 6 7 7 7 8 9 10 10 11 12 12 13 14 15 16 17 17 17 18 18 19
13 16 19 20 20 16 15 10 6 7 13 16 15 11 9 7 7 8 9 9 9 8 7 7 6 6 6 6 7 7 8 8 8 9 10 11 11 12 13 14 15 16 16 16 17 18 18 19 20
12 18 21 22 22 19 15 9 6 10 16 17 15 10 8 5 6 7 8 9 9 9 8 7 7 7 7 7 7 7 8 8 9 9 10 10 11 12 13 14 14 15 16 16 17 18 19 20 21
13 20 24 25 24 21 15 10 8 13 16 17 15 11 6 6 5 7 9 9 9 10 9 8 8 8 7 7 8 8 8 9 9 9 10 11 11 12 12 13 14 14 15 16 17 18 18 19 20
16 24 27 28 25 21 16 11 11 15 17 17 15 12 9 9 9 9 10 9 9 10 10 10 10 9 8 8 9 9 9 9 10 10 10 11 12 12 13 13 14 15 15 15 16 17 18 19 20
19 26 28 28 26 22 17 15 15 18 19 19 18 16 14 13 13 12 12 11 10 9 10 10 10 11 11 10 10 10 10 11 11 11 12 12 13 14 15 15 16 16 16 16 16 17 18 20 21
22 26 28 28 26 23 20 19 20 22 21 21 20 18 17 16 15 15 14 15 13 12 11 10 11 12 12 12 13 12 12 12 12 13 13 14 15 16 17 17 17 18 19 19 19 20 20 21 22
24 28 28 28 27 24 23 23 25 25 25 25 23 22 20 18 19 18 18 18 17 15 12 12 12 13 13 14 14 14 14 14 14 15 15 16 17 18 19 20 21 21 21 22 23 24 25 25 26
29 30 29 27 26 24 23 24 26 27 28 28 26 24 23 23 22 21 21 22 21 20 17 13 15 16 17 17 16 17 16 16 17 17 18 19 19 20 22 23 24 25 26 26 27 28 29 30 30
32 32 29 27 26 24 23 21 24 29 31 30 28 26 26 25 25 26 26 25 24 23 21 20 20 21 22 22 21 20 20 19 20 20 21 22 23 24 25 26 27 29 29 30 31 32 33 34 35
33 31 29 27 26 24 25 19 22 28 32 32 29 27 28 28 29 30 30 29 27 26 25 24 25 26 27 27 26 26 25 24 24 24 25 26 27 29 29 29 30 32 33 34 34 35 36 37 38
30 30 29 27 24 25 24 21 20 26 29 30 28 27 28 31 32 33 34 33 32 30 30 29 28 30 32 33 32 31 31 30 29 29 30 31 31 32 33 34 35 36 36 37 37 37 38 38 39
30 32 31 28 26 27 26 23 21 23 28 29 28 28 30 32 34 35 35 34 34 34 33 32 32 34 36 36 35 35 35 34 34 33 34 35 35 36 37 38 38 38 38 38 39 39 40 40 41
32 33 31 28 29 30 29 28 26 25 27 28 28 30 32 33 35 36 36 37 36 35 35 35 36 38 39 38 36 37 38 37 36 36 36 38 39 40 39 40 40 40 40 40 40 41 42 43 43
31 31 29 28 28 31 32 32 28 27 27 28 29 31 33 35 35 36 37 37 36 36 36 37 39 41 42 41 39 38 38 38 38 38 38 40 40 41 41 41 40 41 41 41 42 42 43 45 46
28 27 27 28 30 31 32 34 28 27 28 28 29 31 33 35 36 37 36 35 35 36 37 38 41 42 41 40 40 41 39 39 39 39 40 41 41 41 42 41 42 43 43 44 44 45 45 46 49
25 23 24 26 30 32 33 35 30 29 31 31 31 33 34 36 36 35 34 33 34 36 38 40 43 42 40 41 41 39 39 39 40 40 41 42 42 42 43 43 45 45 46 46 47 47 48 49 50
21 21 24 27 30 31 28 31 29 25 29 33 36 37 37 36 35 34 33 33 35 38 40 42 44 43 42 42 40 39 39 39 41 41 42 43 43 44 44 45 46 46 47 48 49 50 50 52 54
22 23 25 28 28 25 20 25 22 20 25 30 33 35 35 34 32 32 32 34 36 40 43 45 44 44 43 43 41 39 39 40 41 43 44 45 45 45 46 47 47 48 49 50 51 51 52 55 57
23 24 25 24 23 20 19 19 16 18 22 24 25 25 27 28 29 29 31 35 39 42 44 44 44 43 43 42 40 39 41 41 43 45 46 47 47 47 48 49 49 50 50 51 52 54 56 58 60
21 22 21 21 21 20 20 19 17 18 19 21 21 22 23 25 28 31 34 37 40 42 44 45 45 43 40 40 39 40 41 43 45 47 48 49 50 51 51 51 51 53 54 54 56 57 59 61 62
22 20 22 23 22 21 21 19 20 21 22 23 24 25 26 28 31 33 36 39 41 43 45 44 42 40 39 39 40 41 43 46 48 50 51 52 53 53 54 55 56 57 58 58 59 60 61 62 63
27 26 25 24 24 24 23 22 23 24 26 28 29 30 31 32 34 36 38 40 42 44 44 43 41 39 38 40 41 43 45 48 50 53 54 55 56 57 58 59 60 60 61 61 62 63 63 64 63
28 29 28 28 26 25 25 26 28 29 30 30 30 32 33 35 37 38 40 42 44 44 43 42 41 41 41 42 44 47 49 52 54 56 57 59 60 61 61 62 62 62 62 62 62 63 63 63 62

GEFSSGP_500_meanwind_048.txt.gz
Wind_Speed
21 21 20 19 16 13 11 9 6 5 6 6 6 7 9 10 10 9 8 7 6 6 6 7 7 6 6 5 5 5 6 6 7 8 8 9 10 11 13 14 15 15 16 16 17 17 18 18 18
22 22 22 21 18 14 12 10 8 7 6 6 6 7 9 11 10 9 8 7 6 6 6 6 6 5 5 4 4 5 5 5 6 6 7 8 9 9 11 12 13 14 15 16 16 17 17 17 18
22 22 23 22 19 15 13 12 10 7 5 4 5 7 10 11 10 9 8 7 6 6 6 6 6 5 5 4 4 4 4 4 5 6 6 7 7 8 9 10 11 12 13 14 15 16 16 17 17
22 22 23 23 20 17 15 14 12 9 5 4 5 7 9 10 9 7 6 6 6 6 5 5 5 5 4 4 4 4 4 4 4 5 5 6 7 7 8 9 10 11 12 13 14 15 16 16 16
21 21 22 21 20 18 17 16 14 11 7 4 4 7 8 9 8 7 6 5 6 6 6 6 6 5 5 5 5 4 3 3 4 4 5 5 6 7 7 8 9 11 12 13 14 15 15 15 15
18 18 19 19 21 20 20 19 16 12 7 3 2 6 8 8 8 7 6 5 6 7 7 7 7 7 7 6 6 5 4 4 4 4 4 5 5 6 7 8 9 10 11 13 14 15 15 15 15
15 16 17 20 23 23 23 22 18 14 9 4 1 4 6 8 8 7 7 7 7 8 8 8 9 9 8 8 7 6 6 5 5 5 5 5 5 6 7 8 9 10 11 13 14 15 15 15 15
14 16 19 22 24 25 26 24 20 15 10 6 1 2 5 6 7 7 8 8 9 10 11 11 12 11 10 10 9 8 7 6 6 6 5 5 5 6 7 8 9 10 11 12 14 15 15 16 16
13 16 20 24 26 28 28 26 22 16 12 8 3 1 4 5 6 7 8 9 10 11 12 13 13 13 12 11 10 9 8 7 6 6 6 6 6 6 7 8 8 10 11 12 13 14 15 16 16
12 15 21 27 29 31 30 27 23 19 14 10 5 2 2 2 4 7 8 10 10 11 13 14 14 13 13 12 11 10 9 8 7 7 7 7 7 7 7 8 9 10 11 12 13 14 15 15 16
13 17 25 29 31 31 31 28 23 20 17 12 8 6 4 1 3 6 8 9 11 12 14 14 14 14 14 13 12 11 10 9 9 8 8 8 8 8 8 9 9 10 11 12 14 14 15 16 17
16 21 27 29 31 31 31 28 24 21 18 16 12 10 8 5 4 7 9 9 12 14 15 15 15 15 14 14 13 13 12 11 11 11 11 10 10 10 10 10 11 12 13 14 15 16 17 18 19
19 25 29 30 31 30 29 27 25 22 20 18 15 12 10 9 7 8 9 10 12 14 15 16 16 17 16 16 15 14 13 13 13 13 13 13 13 13 13 13 14 15 16 17 18 19 20 21 22
24 29 31 30 30 30 29 27 24 23 21 19 17 15 13 11 10 10 10 11 13 14 15 17 18 19 19 18 17 17 16 15 15 15 15 15 15 16 16 17 17 18 19 20 21 22 24 25 26
28 30 31 31 31 30 28 27 26 24 22 20 19 18 16 15 14 13 12 12 14 15 15 17 19 20 21 21 20 20 19 19 19 19 18 18 19 19 20 20 21 22 23 24 25 26 27 28 29
30 31 32 32 33 32 29 28 27 25 24 23 22 21 20 19 17 16 14 13 15 16 17 20 21 22 23 23 23 22 22 23 24 23 22 22 22 23 23 24 24 26 27 28 29 29 29 30 31
32 32 33 34 34 34 32 29 29 28 27 27 26 25 24 23 21 19 17 16 16 18 20 22 23 24 25 25 25 24 25 26 26 26 25 25 25 25 26 27 28 29 30 30 31 31 31 31 33
32 32 34 36 37 36 35 32 31 32 32 31 30 29 28 27 24 22 20 19 19 19 21 22 24 26 27 28 29 29 29 28 29 28 27 28 27 28 28 29 30 30 30 30 31 31 32 32 34
33 34 35 36 39 40 39 36 34 35 35 34 33 31 29 28 26 25 23 21 21 21 21 23 25 28 29 31 32 33 32 31 30 29 28 28 29 29 29 30 30 30 31 32 32 32 33 34 36
35 35 34 34 39 43 43 40 37 36 37 37 35 33 31 29 28 27 25 23 22 22 23 25 27 29 32 34 35 35 35 34 33 31 27 27 28 28 28 29 30 31 32 33 35 36 36 38 39
35 34 33 34 38 42 43 43 40 39 39 37 36 34 32 30 29 28 28 26 25 24 26 27 30 32 35 36 37 38 36 34 34 29 27 27 27 28 29 29 29 32 34 35 37 38 39 41 42
34 32 32 33 36 39 42 43 40 39 38 37 36 35 33 32 31 30 30 28 28 27 29 31 33 36 37 37 38 40 38 37 35 31 29 28 28 28 29 30 33 34 36 38 39 41 43 44 45
31 31 32 34 36 38 40 41 38 36 37 36 36 36 35 34 33 32 32 31 31 31 32 34 36 38 38 39 40 41 40 39 35 32 31 30 30 31 32 33 35 37 39 41 43 45 47 48 49
32 33 34 35 36 37 36 38 38 35 35 36 37 37 36 36 35 34 34 34 34 34 35 38 39 41 41 43 43 42 41 38 37 36 35 33 34 35 35 37 39 41 43 46 48 49 50 51 53
33 33 34 34 35 34 32 35 36 35 35 36 36 36 36 36 36 36 35 36 36 36 38 40 41 42 43 43 43 43 42 40 39 39 38 37 38 39 40 42 44 46 48 50 52 53 54 56 57
31 32 33 32 31 30 30 33 33 34 34 34 35 35 35 35 35 35 35 36 37 38 39 39 40 41 42 41 42 41 41 40 39 39 40 41 42 44 46 47 49 51 53 55 56 57 59 60 62
31 32 30 30 29 28 29 31 32 32 32 32 32 33 33 33 33 33 34 34 35 35 36 37 39 39 40 41 42 42 43 42 42 43 43 44 47 49 51 52 54 55 57 59 60 61 62 63 64
31 32 30 30 29 28 28 28 28 29 29 30 30 30 31 31 31 31 31 31 32 33 34 36 38 39 41 42 43 44 44 44 45 46 48 49 52 54 55 57 58 59 61 62 63 64 64 65 66
32 32 32 31 29 28 27 26 26 27 28 29 30 30 30 30 30 30 30 31 33 34 36 37 40 41 43 44 45 47 47 48 49 50 52 54 56 58 59 59 60 61 61 62 63 64 64 64 65
33 33 32 31 29 28 27 26 26 26 27 28 29 30 31 31 32 32 32 33 35 37 38 40 42 44 45 47 49 51 52 53 54 55 56 58 59 60 60 60 60 61 61 62 63 63 63 63 64

GEFSSGP_500_meanwind_054.txt.gz
Wind_Speed
23 24 23 20 17 14 12 12 9 7 5 4 4 4 4 4 3 3 2 1 0 0 1 1 1 0 0 1 2 4 4 5 6 6 6 6 6 6 7 7 8 8 8 8 8 8 8 8 9
24 25 24 22 20 15 14 14 11 8 5 4 3 3 3 2 2 1 1 2 2 2 2 2 2 2 2 1 0 2 3 3 4 4 5 5 5 6 6 6 7 7 7 7 7 8 8 9 10
24 25 26 25 24 20 17 17 14 10 6 4 3 3 3 2 1 2 3 4 4 4 4 4 4 3 2 2 1 1 2 2 3 4 5 5 5 5 5 6 6 6 6 7 7 8 8 9 10
22 24 26 27 25 23 22 19 16 11 7 5 4 2 2 1 2 3 4 4 5 4 5 5 5 4 3 2 2 1 2 2 3 4 5 5 6 6 6 6 6 7 7 7 7 8 9 9 10
20 23 25 26 25 24 23 20 17 12 9 6 5 3 2 1 2 4 4 5 5 5 6 6 6 5 4 3 3 2 2 3 4 5 6 6 7 7 7 7 7 7 7 8 8 9 9 10 10
18 20 22 23 25 26 24 21 18 13 10 8 5 4 3 3 4 5 6 6 6 7 7 7 6 6 5 4 3 3 3 3 4 5 6 7 7 8 8 8 8 9 8 8 9 9 10 10 11
16 18 18 21 26 27 25 24 20 15 11 9 6 5 5 4 5 6 7 7 7 8 8 8 7 6 6 5 4 3 3 3 4 5 6 7 8 8 9 9 9 10 10 10 10 10 11 11 12
13 15 18 22 25 26 27 25 21 17 13 11 8 7 7 6 6 7 7 7 7 7 7 7 6 6 6 5 5 4 4 4 4 5 6 7 8 9 10 10 10 10 10 10 11 11 11 12 12
14 14 16 21 25 27 29 26 23 18 15 12 11 10 9 8 8 7 7 6 5 5 5 5 5 5 6 5 5 5 5 5 5 6 7 8 9 10 11 11 12 12 11 12 12 12 12 13 13
14 13 17 23 27 30 29 27 22 19 16 14 12 12 10 10 9 7 6 5 3 2 3 3 4 5 5 5 6 6 6 7 7 8 8 9 10 11 12 12 13 13 13 13 13 13 14 14 15
16 15 20 24 27 29 28 26 22 20 17 16 15 13 12 10 10 7 6 4 2 1 2 3 4 6 6 7 7 8 8 8 9 10 10 11 12 13 14 14 15 15 15 15 15 15 15 16 16
19 18 21 25 27 27 27 25 22 20 19 18 16 15 13 12 11 8 6 4 2 2 4 5 6 7 8 9 10 10 10 11 11 12 12 13 14 15 16 16 17 17 17 18 18 18 18 18 19
22 22 23 24 25 25 25 25 22 21 20 18 17 16 15 14 12 11 8 7 5 5 6 7 8 10 10 11 12 12 13 14 14 15 16 16 17 18 19 19 20 21 21 21 21 21 21 21 22
24 24 24 24 24 24 25 24 22 22 21 19 18 17 16 16 15 13 11 10 9 8 9 10 11 12 13 14 14 15 15 15 16 18 19 20 21 22 23 23 24 24 24 24 24 24 24 25 25
26 25 25 24 24 24 24 23 22 22 21 20 19 18 16 16 16 15 15 13 12 11 11 12 13 14 15 16 16 17 17 18 19 21 22 24 25 26 27 27 28 28 28 28 28 27 27 27 27
27 27 26 27 26 25 24 23 24 23 22 22 21 20 19 16 16 16 16 16 16 15 15 15 15 17 18 18 19 19 20 21 22 24 25 27 28 29 30 31 32 32 32 32 31 30 29 29 29
28 28 28 29 28 27 26 26 26 23 23 23 23 22 21 19 18 18 18 19 19 19 19 19 19 19 20 21 23 23 24 25 27 29 29 29 31 32 32 33 34 35 35 35 34 33 31 29 28
29 29 30 31 31 30 30 30 28 26 25 25 24 23 23 20 19 20 21 23 23 23 23 23 22 22 23 24 26 26 28 30 32 32 31 31 33 34 34 33 34 33 33 32 32 31 28 28 28
31 31 32 33 33 32 33 33 32 31 29 28 27 27 25 23 23 23 24 26 27 27 27 27 26 25 26 27 28 30 32 34 36 35 35 33 33 33 31 31 31 30 31 29 28 28 28 28 27
32 32 33 34 35 35 36 35 35 34 33 32 31 30 29 28 27 27 27 28 29 30 30 30 29 29 30 31 32 33 36 37 38 38 36 35 33 31 27 26 27 27 27 27 27 25 25 25 27
33 33 33 34 36 36 37 36 37 37 37 36 35 34 33 32 31 30 30 30 30 31 32 32 31 31 33 34 35 35 37 39 41 41 39 37 33 28 26 26 25 25 25 27 27 27 27 29 30
33 33 34 35 36 37 39 37 37 39 39 38 38 37 37 36 34 34 33 31 31 32 32 33 33 33 35 36 36 37 39 41 42 42 40 37 31 29 26 24 24 24 25 27 29 30 31 33 35
33 33 34 35 36 38 39 38 35 38 39 39 39 39 39 38 36 35 34 33 33 33 33 34 35 35 36 37 38 39 41 42 42 41 39 35 32 29 29 29 27 27 28 30 32 33 35 37 39
33 34 34 35 36 38 37 37 35 37 38 39 40 39 39 38 37 36 35 34 34 35 35 36 37 38 39 39 40 41 42 42 42 40 39 38 34 32 32 31 31 31 33 34 36 38 40 42 45
33 32 32 32 34 33 34 36 35 40 37 37 38 38 38 37 36 35 35 35 35 36 37 37 38 39 40 41 42 42 42 42 42 41 40 38 36 35 34 35 36 37 38 40 41 44 46 48 49
30 30 29 25 23 24 31 32 37 37 35 34 34 35 35 35 34 34 34 34 35 35 35 36 37 39 40 41 42 42 42 41 40 41 40 40 39 39 39 40 41 42 44 45 47 49 50 51 52
28 29 27 28 26 23 22 31 35 33 32 31 31 31 30 30 30 30 30 31 31 32 33 35 36 38 39 40 41 42 42 41 41 41 41 41 42 43 44 45 45 46 48 50 50 51 53 54 55
26 25 28 30 27 23 22 24 27 30 28 27 27 27 27 27 27 27 27 28 29 30 32 33 35 37 38 40 41 42 42 42 42 43 43 44 46 47 48 48 49 51 52 53 53 54 55 56 57
25 27 28 27 25 22 19 21 27 27 26 25 25 25 25 25 25 26 27 27 29 30 32 33 35 36 38 39 40 41 42 42 44 45 47 48 50 51 52 52 53 54 54 55 55 55 56 56 57
23 24 26 26 26 26 21 23 26 25 24 24 24 24 24 24 24 25 27 28 29 31 33 34 35 37 38 39 40 42 43 45 46 48 50 51 53 55 55 56 56 56 56 56 57 57 57 57 57

GEFSSGP_500_meanwind_060.txt.gz
Wind_Speed
21 20 18 16 16 13 5 6 6 7 12 12 12 11 11 13 13 12 13 12 8 7 8 8 8 8 8 8 8 8 8 9 9 10 10 11 11 11 11 11 12 12 12 12 13 13 12 12 12
23 22 21 20 20 14 9 7 6 10 14 13 12 11 12 13 11 11 11 10 7 7 7 7 7 7 7 6 6 6 6 6 7 7 8 9 9 9 10 10 10 11 11 12 12 12 12 12 12
24 25 25 25 24 16 11 8 6 9 11 12 11 11 12 12 10 10 9 8 6 6 6 7 6 6 6 5 4 4 4 4 5 5 6 7 8 8 8 8 9 9 10 11 12 12 12 12 12
25 27 28 28 25 18 13 11 7 7 9 10 10 10 12 10 9 8 8 7 6 6 6 6 6 6 5 4 3 3 3 4 4 5 6 6 7 7 7 8 9 9 10 11 11 12 12 12 12
25 28 30 30 28 22 18 14 10 10 9 9 10 11 13 8 8 8 7 7 7 6 6 6 6 5 4 3 2 2 2 3 4 5 6 6 7 7 8 8 9 9 10 11 11 12 12 12 12
24 26 29 28 26 23 20 17 14 13 12 11 11 12 13 9 8 7 7 7 7 7 7 6 6 4 3 2 2 1 2 3 4 5 5 6 7 7 8 8 9 10 10 11 12 12 13 13 13
21 24 26 25 25 23 20 18 17 17 15 13 12 13 13 10 8 7 7 7 7 7 7 6 5 4 2 1 1 1 1 2 3 5 5 6 7 8 8 9 10 11 11 12 13 13 13 13 13
18 21 23 24 25 23 20 20 21 19 17 15 14 13 14 11 9 8 8 8 7 7 6 5 4 3 1 0 0 1 2 3 4 5 6 7 8 8 9 9 10 11 12 13 14 14 15 15 15
17 19 18 21 21 20 20 20 20 19 18 18 15 16 15 12 10 9 8 8 7 6 5 4 3 2 1 2 2 3 3 4 5 6 7 8 8 9 10 11 12 13 14 14 15 16 16 16 16
17 16 15 18 20 20 21 22 22 21 19 17 15 17 15 12 11 10 10 9 8 7 6 5 3 3 3 4 4 5 5 6 6 7 8 9 10 11 12 13 13 14 15 16 16 17 17 18 18
18 16 18 19 20 23 25 24 24 22 20 17 16 17 16 14 12 12 12 11 9 8 7 6 5 5 5 5 6 7 8 8 9 10 11 11 13 13 14 15 16 17 17 18 18 19 19 19 20
20 19 20 20 22 24 26 25 23 22 21 18 19 21 20 17 14 13 13 13 11 9 9 8 7 8 8 8 9 10 11 11 12 13 14 14 16 17 17 17 18 19 19 20 20 21 22 22 23
22 21 21 21 20 20 23 25 23 22 22 22 24 24 21 18 15 13 14 14 13 12 11 11 10 11 11 12 12 13 14 14 15 16 17 18 18 20 21 22 22 23 23 22 23 24 24 25 26
23 23 23 21 20 19 20 21 22 21 22 23 24 22 19 18 16 15 16 15 14 14 14 14 13 13 14 15 15 16 17 18 18 19 20 21 21 23 24 25 26 27 27 26 26 27 27 28 28
24 24 23 22 20 19 19 19 19 20 22 23 23 21 20 20 19 17 18 17 17 16 16 16 15 15 17 18 19 19 21 21 21 22 22 24 24 26 28 28 29 30 30 29 29 29 30 30 31
23 23 22 21 21 21 20 16 16 18 21 22 22 21 21 21 20 19 20 19 18 18 17 18 18 18 19 20 21 22 23 24 24 24 25 26 27 28 31 31 31 31 30 30 29 31 31 30 31
23 21 20 19 20 21 20 16 14 15 18 21 21 21 21 22 22 22 21 20 19 19 18 19 20 20 21 22 24 24 25 26 26 26 27 28 29 30 31 32 33 31 29 28 27 28 29 29 29
20 18 18 16 18 22 21 16 16 16 19 21 21 21 22 22 22 23 24 23 21 20 20 20 22 22 23 25 26 26 27 27 28 28 29 29 30 32 33 33 32 30 29 28 28 26 26 27 26
20 17 17 15 18 24 22 18 19 19 21 22 20 20 22 23 25 26 27 27 24 22 21 22 23 24 25 27 28 29 29 30 30 30 31 32 33 33 34 33 32 31 30 29 28 26 25 25 25
26 24 21 19 22 27 26 23 23 23 23 23 22 24 26 28 28 26 27 29 26 24 24 25 26 27 28 29 30 31 32 32 32 33 33 34 34 35 36 35 33 31 30 29 27 25 25 26 25
28 27 24 21 23 28 28 25 25 27 28 27 27 28 28 29 29 29 30 30 30 28 27 27 29 30 31 32 32 33 34 35 35 35 36 37 38 37 38 37 35 33 30 28 28 28 28 28 28
29 28 27 27 27 26 26 26 24 25 28 30 31 30 29 31 32 32 33 33 32 32 30 30 32 32 33 34 34 35 36 37 37 38 39 40 40 39 39 38 36 34 33 31 31 31 31 31 32
30 27 27 27 29 30 28 26 21 20 26 29 30 31 32 33 33 34 34 36 35 36 35 34 34 34 35 35 36 37 38 39 40 41 42 42 42 41 40 39 38 37 35 34 34 33 34 35 36
28 28 27 27 28 31 28 27 22 21 26 29 31 31 32 33 34 34 35 36 37 38 37 36 35 35 36 36 38 39 40 41 42 43 44 44 43 42 41 40 40 39 37 37 37 37 37 38 40
27 27 26 25 26 26 22 23 24 27 30 33 35 35 34 32 32 34 35 36 37 37 38 37 37 36 37 38 39 41 42 43 44 45 45 46 45 43 42 42 42 41 40 40 40 40 41 42 44
26 28 27 21 17 15 16 21 26 32 34 36 38 38 37 35 34 34 35 36 36 37 37 37 37 37 38 39 40 41 42 43 45 46 46 45 43 43 44 45 44 43 43 43 43 43 45 46 47
24 25 25 24 21 18 16 23 29 32 33 34 37 38 39 38 37 36 35 35 35 35 36 37 37 37 38 39 40 41 43 44 45 46 46 45 45 46 47 47 46 46 46 46 46 47 48 50 51
23 22 23 27 25 22 17 23 30 31 31 31 33 35 36 36 35 34 34 33 33 33 34 34 35 37 38 39 41 42 43 44 45 46 46 47 48 49 49 48 49 50 50 50 51 52 52 53 54
20 23 25 25 26 24 21 24 26 29 31 32 31 29 29 30 30 30 29 30 31 31 32 33 34 35 37 38 40 41 43 44 45 46 47 49 50 50 51 52 52 52 53 54 54 55 56 56 57
18 20 23 25 26 27 24 28 29 29 31 30 27 25 25 26 27 28 28 29 30 31 32 33 34 36 37 39 40 42 44 45 47 49 50 51 52 53 53 54 54 55 56 57 57 58 58 59 59

GEFSSGP_500_meanwind_066.txt.gz
Wind_Speed
24 23 22 21 20 17 14 9 5 2 1 2 3 5 8 10 10 11 12 12 12 11 10 9 9 9 8 9 9 9 9 10 10 10 10 10 10 10 11 11 12 12 12 12 13 13 13 13 13
27 26 25 24 23 21 17 12 5 1 1 4 5 7 8 10 10 11 11 11 11 10 9 8 8 8 8 8 7 8 8 8 8 8 8 8 8 8 9 10 10 11 11 11 12 12 13 13 13
29 29 29 28 26 24 20 15 8 3 1 4 8 8 9 9 9 9 10 10 9 8 8 7 7 6 6 6 6 6 6 6 5 5 5 5 6 6 7 8 9 9 10 10 11 12 12 13 13
29 31 32 31 29 27 22 17 10 7 5 5 9 9 9 9 9 9 9 9 8 7 6 6 6 5 5 5 5 5 5 4 4 4 4 4 4 5 6 8 8 9 9 9 10 11 12 12 12
29 31 33 32 29 28 24 19 13 9 8 9 10 10 10 10 10 9 9 7 6 6 5 6 5 5 5 5 4 4 4 4 3 3 3 3 4 5 6 7 8 8 9 9 10 11 11 12 12
26 30 31 30 29 30 27 22 17 12 11 11 12 11 12 11 9 8 8 6 5 5 5 5 5 4 4 4 3 3 3 2 2 1 2 2 3 4 5 6 7 8 9 10 10 11 11 12 13
22 26 27 28 31 32 28 24 19 14 13 12 14 13 12 11 9 8 8 6 5 5 4 4 4 3 3 2 2 1 1 1 0 1 1 2 3 4 5 6 7 8 8 9 11 11 12 13 13
20 22 23 26 31 32 30 26 20 16 14 14 16 15 14 13 9 7 7 6 5 4 4 4 4 3 2 2 1 1 2 2 2 2 2 2 3 4 5 6 7 8 9 10 11 12 13 14 14
20 18 17 22 29 31 32 30 24 20 18 18 19 18 18 15 11 7 7 6 5 5 4 4 4 3 2 2 1 2 2 2 2 2 2 2 3 4 5 6 7 8 9 11 12 13 14 15 16
19 15 14 21 27 32 35 33 27 23 21 21 21 21 21 17 13 9 8 8 7 7 6 5 4 3 2 2 1 1 2 2 2 2 1 2 2 3 4 6 8 9 11 12 13 14 15 17 18
19 15 18 22 26 31 34 33 29 25 24 23 23 22 21 19 15 12 10 9 9 8 7 5 4 4 2 1 1 1 1 2 1 1 1 2 3 4 5 7 9 10 11 13 14 16 17 18 19
20 18 19 21 25 29 31 31 29 27 25 24 24 23 21 20 17 14 12 10 9 9 8 6 5 4 3 2 1 0 1 1 1 1 2 3 4 5 6 7 9 11 12 13 14 15 17 18 19
22 21 21 22 24 26 27 28 28 27 26 26 26 25 22 19 17 16 14 12 10 9 9 8 6 5 4 3 2 2 2 3 2 2 3 4 5 6 7 8 10 11 12 13 15 15 17 18 19
25 24 23 23 24 25 26 26 26 25 27 28 28 26 23 20 18 17 16 13 12 11 10 9 7 7 6 5 5 5 5 5 4 5 5 6 6 8 8 10 11 13 14 15 16 16 16 17 18
28 26 25 24 24 24 25 23 23 24 28 29 30 28 26 23 20 19 18 17 15 14 12 11 10 8 8 8 8 7 7 7 7 7 7 8 9 10 10 12 14 14 15 16 17 17 17 17 17
30 28 24 23 23 23 22 19 21 25 29 30 30 28 26 24 20 20 19 19 18 17 14 14 12 11 10 10 10 9 9 9 10 10 9 10 11 13 13 15 15 16 16 17 17 16 17 18 17
30 27 24 23 22 21 20 18 20 24 27 29 30 29 27 25 22 20 20 20 20 18 18 17 15 14 13 13 12 12 12 13 13 14 13 14 15 16 17 18 18 18 19 19 19 18 19 19 19
28 27 24 22 21 21 19 18 18 22 26 28 29 29 28 27 25 23 22 22 21 20 19 19 19 18 16 16 16 16 17 17 17 18 18 18 19 19 20 21 22 22 21 21 21 22 22 21 21
27 27 26 24 23 22 20 19 19 21 24 27 28 28 28 27 26 25 23 23 24 23 22 21 21 19 19 20 21 21 21 21 21 22 23 23 23 23 24 24 24 24 25 24 24 24 24 23 22
28 28 27 25 24 22 20 19 19 21 22 24 26 27 26 26 26 26 25 25 25 24 24 23 22 21 22 23 25 25 25 25 26 26 27 27 27 26 26 27 27 27 28 28 27 27 26 25 25
29 28 28 26 25 23 21 21 20 21 22 24 25 26 26 26 26 26 27 27 26 27 26 24 24 25 26 27 29 29 29 29 30 30 30 30 30 29 30 30 30 30 30 30 30 29 28 28 28
29 29 29 28 26 24 24 23 22 24 26 27 28 27 26 26 26 27 27 29 29 29 29 28 29 30 31 31 31 32 32 32 34 34 33 33 33 33 33 33 33 32 33 33 33 32 32 31 31
28 29 30 30 29 29 27 26 25 27 29 29 30 30 29 28 29 29 30 31 31 32 33 33 34 34 34 35 35 36 35 36 36 36 35 35 35 36 36 36 34 35 35 34 34 34 35 35 35
28 28 30 32 32 31 28 28 27 27 30 31 32 32 31 31 32 33 33 33 34 35 36 37 36 36 36 37 38 38 37 37 37 36 36 37 37 38 37 36 36 37 37 36 36 38 37 39 40
27 29 30 31 33 32 28 28 28 27 29 33 34 34 33 33 33 34 35 36 36 36 36 38 38 37 38 39 40 40 38 38 38 38 39 39 38 38 38 39 39 39 38 39 41 42 42 43 44
26 28 29 29 31 30 28 29 30 28 29 32 34 35 35 35 34 34 35 37 37 38 39 39 39 39 40 41 41 40 39 39 39 39 40 40 40 40 41 41 42 42 43 43 44 44 46 46 48
24 25 26 27 28 28 30 32 31 29 29 31 33 34 35 35 35 36 37 38 39 40 41 41 41 41 41 41 41 41 41 41 41 41 41 41 42 42 43 44 44 45 46 46 47 47 49 50 52
21 22 24 26 26 27 28 30 31 29 28 28 30 32 34 35 36 36 37 39 41 41 42 42 42 42 42 42 42 41 41 41 42 41 42 42 43 44 45 46 47 48 49 49 50 51 53 54 55
19 22 25 25 25 26 27 29 31 29 28 29 30 31 34 35 36 37 39 41 42 42 42 43 43 43 43 42 42 41 40 41 41 42 42 43 44 45 46 48 50 51 52 53 54 55 57 57 58
20 22 24 26 26 26 27 31 32 31 29 29 30 31 33 35 36 38 39 39 41 41 42 42 42 42 42 41 41 41 41 42 43 44 45 45 46 48 50 51 52 54 56 57 58 59 60 60 60

GEFSSGP_500_meanwind_072.txt.gz
Wind_Speed
23 23 23 23 22 20 18 16 14 12 12 9 7 4 2 2 2 4 5 6 6 6 7 6 6 6 6 4 4 3 3 3 3 3 3 3 4 4 5 5 6 6 6 6 7 7 7 8 8
24 25 26 26 25 23 21 19 16 14 12 10 7 4 3 2 3 4 6 6 7 6 6 6 6 5 5 4 3 3 2 3 2 2 2 2 2 3 3 3 4 5 5 5 6 6 7 7 8
25 27 28 29 28 25 23 20 18 15 12 10 7 6 3 2 3 5 6 7 7 6 6 5 5 4 4 3 3 2 2 2 2 2 2 2 2 2 2 3 3 4 4 5 5 6 6 7 7
26 28 30 30 29 27 25 22 20 17 15 12 9 6 4 2 4 6 6 7 7 6 5 4 4 3 3 3 2 3 2 2 1 2 2 2 2 2 2 2 3 4 4 5 5 6 6 7 7
26 28 30 30 30 29 28 25 22 20 17 14 10 8 5 3 4 6 6 6 5 4 4 4 3 3 2 2 2 3 3 2 2 2 2 2 2 2 2 2 3 4 5 5 6 7 7 7 8
26 27 29 28 28 30 30 27 24 22 20 17 13 10 6 4 5 5 6 5 4 3 3 3 3 3 3 2 2 3 3 3 3 3 3 3 2 2 2 2 3 4 5 6 6 7 7 7 8
25 26 26 25 28 32 32 30 27 26 24 20 16 13 8 5 4 5 6 5 4 3 2 3 3 4 4 3 3 4 4 4 3 3 3 3 3 2 2 2 3 4 5 6 7 7 8 7 8
24 24 22 23 27 32 34 33 31 29 27 23 19 15 11 6 4 5 6 5 3 2 2 3 4 4 4 4 4 4 5 5 4 4 4 3 3 3 3 3 3 4 5 7 8 9 9 8 8
24 22 19 20 26 32 35 35 34 33 30 25 21 18 13 8 6 6 6 5 3 2 2 3 4 5 5 5 5 5 5 5 5 5 4 4 4 4 4 4 5 6 7 8 9 10 11 10 10
24 20 17 20 26 32 37 38 37 35 32 27 24 20 15 10 8 8 7 5 3 3 3 3 3 4 4 5 6 6 6 6 6 6 5 5 5 5 5 6 6 7 8 9 10 11 12 12 12
25 21 20 22 26 32 38 40 39 38 34 31 27 22 17 13 10 9 9 6 4 3 3 4 4 4 5 5 6 6 6 7 6 6 6 7 7 7 7 7 8 9 9 10 11 12 12 13 13
28 25 23 24 27 31 36 39 40 38 36 33 30 26 21 16 13 11 10 7 5 5 4 5 5 6 6 7 7 8 8 7 7 7 7 7 8 9 9 9 10 10 10 11 12 13 13 13 14
30 28 26 25 26 29 33 36 39 38 36 35 33 28 22 18 15 13 11 9 7 6 6 6 6 7 8 8 8 9 9 9 8 9 9 9 9 10 11 11 11 11 11 12 13 13 14 14 14
31 30 28 26 24 26 29 32 34 35 35 35 32 29 24 20 17 15 14 11 9 8 8 7 8 9 9 10 10 10 11 11 11 10 11 11 12 13 13 13 13 13 13 14 15 15 15 15 15
32 30 28 27 25 25 27 29 29 31 34 34 32 30 26 23 20 17 15 13 12 10 10 9 10 10 12 12 13 13 14 14 14 14 14 14 14 15 15 15 15 16 16 16 16 17 17 17 17
32 31 29 28 27 27 27 28 28 31 33 33 31 30 26 23 21 19 16 15 15 13 12 10 12 13 13 14 15 16 17 17 17 16 16 17 17 17 17 18 18 19 19 19 19 19 19 19 19
32 31 30 29 28 28 27 27 29 32 33 33 32 30 27 24 23 21 19 17 16 15 14 13 13 14 16 17 17 18 19 19 20 19 19 20 20 21 20 21 21 22 22 22 22 22 22 22 21
31 31 30 29 29 29 28 28 31 33 33 33 32 31 29 26 24 22 21 20 19 18 17 17 17 17 19 19 20 21 22 23 23 24 24 24 23 23 23 24 24 25 26 26 25 25 25 25 24
29 30 29 29 30 29 28 28 31 32 32 32 31 31 30 28 26 25 23 22 21 21 21 21 21 21 22 23 23 24 25 26 27 28 27 27 27 26 26 27 28 29 28 28 28 28 28 27 26
27 28 28 28 29 30 29 29 31 32 32 31 31 30 30 29 28 26 25 24 24 22 21 22 23 24 26 27 28 28 28 28 29 31 32 30 29 29 29 30 31 31 30 30 31 33 31 30 29
27 27 27 28 30 30 29 29 31 32 32 31 31 30 30 31 30 28 27 26 26 25 25 26 26 26 27 29 30 31 32 31 32 33 34 33 32 32 32 33 33 33 33 33 35 35 33 32 31
26 27 27 28 30 30 30 30 31 31 31 31 30 30 30 31 31 31 29 29 28 28 28 30 30 29 29 30 31 33 34 34 33 32 32 32 32 33 34 35 34 34 34 34 35 37 35 34 33
25 27 28 29 31 30 30 31 31 31 30 30 29 29 29 31 32 31 31 30 30 31 31 32 31 31 32 32 34 37 36 34 33 34 33 34 34 34 34 34 34 35 35 36 36 36 37 36 35
25 27 29 30 31 31 30 31 31 31 30 29 29 29 30 31 32 32 31 31 32 32 33 33 33 33 34 34 35 37 37 37 35 34 34 34 34 35 37 37 37 36 36 36 36 37 38 38 40
25 27 29 30 32 31 30 31 31 31 30 29 30 31 31 32 33 33 33 33 33 34 35 36 36 35 35 36 37 38 38 37 37 37 37 38 37 37 37 37 36 35 36 37 38 39 40 41 42
25 27 28 30 30 31 31 32 31 31 31 30 30 31 32 33 34 34 35 35 36 36 37 38 38 37 37 37 38 38 38 38 38 38 38 37 37 36 37 37 38 38 38 39 40 41 43 44 45
23 25 27 28 29 30 32 33 33 32 32 32 32 32 33 34 35 35 36 37 38 38 39 38 38 38 38 38 39 40 41 40 39 39 40 40 38 38 38 38 40 41 42 43 43 44 46 47 47
22 23 25 28 29 30 33 33 34 33 32 33 33 33 34 35 36 37 37 38 39 40 41 41 41 41 42 42 42 42 41 39 39 40 40 40 39 38 38 40 42 43 45 46 47 49 49 50 52
21 23 25 26 28 29 32 34 34 34 35 35 36 36 35 35 36 38 38 39 39 40 41 42 43 44 43 42 41 42 42 40 41 40 40 40 40 41 42 42 44 46 48 49 51 52 54 55 56
19 21 23 25 26 28 30 32 32 33 33 34 35 36 37 37 37 36 37 38 38 39 39 40 41 41 41 41 41 41 40 40 41 41 41 41 42 43 43 46 48 49 51 52 54 55 57 59 60

GEFSSGP_500_meanwind_078.txt.gz
Wind_Speed
17 19 20 20 19 17 16 20 17 15 14 12 11 11 10 9 8 7 7 7 7 7 7 7 7 8 9 9 10 10 10 10 9 9 8 8 7 6 5 5 4 4 3 3 3 3 4 4 5
17 19 21 22 21 18 19 22 19 17 15 13 12 12 11 9 8 7 7 7 7 7 7 7 8 8 9 10 10 10 11 10 10 9 8 8 7 6 6 6 5 4 4 3 3 4 4 4 5
18 20 23 24 24 21 20 25 21 18 15 14 13 12 11 9 8 7 6 6 6 6 6 6 7 8 8 9 10 11 11 10 10 9 8 7 7 7 6 6 5 4 4 4 4 4 5 5 6
20 22 23 24 25 26 27 27 24 20 17 15 13 11 10 9 7 6 6 6 6 5 5 5 7 8 9 10 10 11 11 10 10 9 8 8 7 7 6 6 5 5 5 4 4 5 5 6 6
23 23 23 23 24 27 30 29 26 23 19 16 14 12 10 9 8 7 6 5 5 4 4 5 6 8 9 10 10 11 11 10 10 9 9 8 8 7 7 6 6 5 5 5 5 5 6 7 7
26 24 23 21 23 28 31 30 28 25 22 19 16 13 12 10 8 7 5 4 4 4 4 5 6 8 9 10 10 10 11 10 10 9 9 8 8 7 7 7 6 5 5 5 5 6 7 7 8
28 26 23 21 23 28 32 32 30 28 25 22 19 16 13 11 9 7 6 4 3 4 4 5 7 8 9 10 10 10 10 10 10 9 9 8 8 8 7 7 6 5 5 5 6 7 8 8 9
29 28 25 23 24 27 32 34 32 30 28 24 20 18 16 13 10 8 7 5 4 4 5 6 8 9 10 10 10 10 10 10 9 9 9 9 8 8 7 7 6 6 5 6 6 7 8 9 10
31 29 26 24 25 27 33 35 34 32 29 25 22 20 17 14 11 10 8 6 5 5 6 7 8 9 10 10 10 10 10 10 9 9 9 8 8 8 8 7 7 6 6 7 7 8 9 10 11
33 31 27 27 27 29 33 35 35 33 30 27 24 22 19 16 14 12 10 7 7 7 7 8 9 10 10 10 11 11 10 10 10 9 9 9 9 9 9 8 8 8 8 8 8 9 10 11 12
33 32 30 29 28 30 31 33 34 33 31 29 27 24 21 17 15 14 13 10 9 9 8 9 9 10 10 10 10 11 10 10 10 10 10 10 10 10 10 10 10 10 10 10 11 11 12 13 13
33 32 31 30 30 29 30 31 32 32 31 31 29 26 24 20 17 16 14 12 11 10 10 10 10 11 11 11 11 11 11 11 11 11 11 11 12 12 12 13 13 13 13 13 13 13 14 14 15
32 32 32 31 29 29 29 30 30 30 31 31 29 27 25 22 20 18 15 14 13 12 12 11 12 12 12 13 12 12 11 11 12 12 12 13 14 14 14 15 15 15 16 16 16 17 17 17 17
31 30 31 30 29 28 28 29 29 29 30 31 30 28 27 25 22 19 16 16 15 15 14 14 14 14 14 14 14 13 13 13 14 14 14 15 16 16 17 17 18 18 18 19 19 20 20 19 20
28 29 29 30 29 29 28 29 29 29 30 30 29 29 29 26 24 21 19 17 17 17 17 16 16 16 16 16 15 15 15 15 16 17 17 18 19 19 20 20 21 21 22 22 23 23 22 22 22
26 27 27 30 29 28 28 28 30 29 29 29 29 28 28 28 26 23 21 20 20 19 19 18 18 18 17 18 18 18 18 18 19 20 20 21 22 23 24 24 25 25 25 25 26 26 25 25 26
24 25 26 29 29 28 28 28 29 27 28 28 28 27 28 27 26 25 24 23 22 21 20 20 20 20 19 20 20 20 21 21 21 22 22 24 25 26 27 28 28 28 29 28 28 29 29 29 29
23 24 26 27 29 28 28 29 28 27 27 27 27 27 27 27 27 26 25 24 24 23 22 22 22 22 21 20 22 23 23 24 25 25 27 28 29 28 29 30 30 31 31 31 32 33 33 32 33
25 25 25 27 28 28 29 29 28 28 28 27 27 27 26 27 28 27 26 27 26 25 24 24 24 24 24 24 25 25 25 27 28 29 30 31 32 32 33 33 33 33 33 33 34 35 33 34 35
23 24 24 25 27 27 28 28 28 28 28 27 27 27 27 27 28 28 28 28 27 27 27 27 28 29 28 28 28 29 29 29 29 31 33 34 34 35 35 35 35 35 35 35 35 35 35 34 35
22 23 24 25 26 26 27 27 28 29 29 29 28 28 28 28 28 28 29 30 29 29 29 30 30 30 31 31 31 32 32 32 32 32 33 34 34 35 34 31 32 34 34 34 35 34 35 35 35
20 23 25 25 24 24 26 24 27 29 29 29 29 29 28 28 28 29 30 31 32 31 31 31 31 31 32 32 33 34 35 35 35 35 36 36 36 35 35 33 32 32 32 32 33 34 34 35 35
20 22 23 24 24 23 25 23 27 28 29 29 29 29 29 28 29 29 30 31 32 32 32 32 31 32 33 33 35 36 36 36 36 37 38 38 36 34 33 34 34 33 33 33 34 34 34 35 36
19 20 22 23 22 22 23 22 24 27 27 28 28 28 28 28 28 29 29 30 33 33 33 33 33 34 35 36 36 37 38 38 39 40 39 36 34 34 34 33 33 33 33 34 34 35 35 36 36
17 17 15 17 19 20 23 23 25 25 26 26 26 27 27 27 27 28 29 30 32 34 35 35 35 36 37 38 38 39 40 40 40 40 38 36 35 34 33 33 33 33 33 33 34 35 36 37 38
15 18 15 14 16 18 22 24 25 23 25 25 25 25 25 26 27 28 29 30 32 33 35 36 36 36 38 39 40 41 42 42 42 40 38 37 35 34 33 34 34 34 35 36 36 36 37 38 40
14 16 18 16 15 16 21 25 25 23 23 24 25 25 26 26 27 29 29 30 31 33 35 36 37 38 39 40 41 42 43 43 43 41 39 37 36 36 36 36 36 37 37 37 38 39 40 41 43
14 14 16 16 14 16 20 23 24 23 24 24 25 26 27 28 28 29 30 31 32 33 34 36 37 39 40 41 42 42 43 43 42 42 40 38 37 36 37 38 38 39 40 40 41 43 42 44 46
13 14 16 16 16 14 16 22 24 23 24 25 26 27 28 29 30 31 31 31 32 33 35 36 37 39 39 39 39 40 42 42 41 41 40 40 39 39 39 40 40 40 41 42 43 44 45 47 49
13 15 16 15 17 17 16 21 21 23 24 24 25 26 28 29 30 31 32 32 33 34 35 36 37 38 38 39 39 40 40 39 39 39 39 39 39 39 41 41 42 43 43 44 45 46 48 49 51

GEFSSGP_500_meanwind_084.txt.gz
Wind_Speed
12 13 15 16 15 12 8 11 16 10 9 13 16 16 15 16 17 16 13 11 10 12 13 13 12 12 13 13 14 14 13 13 13 13 13 12 12 11 10 10 9 8 7 7 7 6 6 5 6
15 15 17 17 16 13 11 16 16 13 13 15 17 17 18 19 17 16 15 13 11 12 13 13 13 13 13 14 14 15 14 14 14 13 13 12 12 11 10 9 8 8 7 7 6 6 6 5 6
19 18 19 19 17 15 15 20 18 15 12 15 17 18 21 20 17 15 15 14 12 13 13 14 13 14 14 14 15 15 15 14 14 13 13 12 12 11 10 9 8 8 7 7 6 5 5 6 6
23 22 22 20 17 14 16 22 19 15 11 15 16 18 19 18 18 17 15 14 13 13 13 14 14 14 15 15 15 15 15 14 14 13 12 12 11 10 9 9 8 8 7 6 6 6 6 6 6
26 25 24 21 17 16 18 22 20 15 11 12 14 19 19 15 15 15 15 14 13 12 13 13 14 14 15 15 15 15 14 14 13 12 12 11 11 10 9 9 8 8 7 7 6 6 6 6 6
29 28 26 22 18 17 20 23 22 17 14 14 16 19 21 17 15 14 14 13 12 11 12 12 13 14 14 14 14 14 13 13 12 12 11 11 10 10 9 9 8 8 7 7 7 7 6 6 7
30 30 28 24 20 20 21 25 24 22 19 19 20 21 24 20 16 14 13 12 11 11 12 12 13 13 13 13 13 13 12 12 12 12 11 11 11 10 9 9 8 8 8 8 8 7 7 7 8
31 32 31 27 24 23 22 25 25 27 24 23 25 24 26 19 16 15 14 13 12 11 11 11 12 12 12 13 13 13 12 12 12 12 12 11 10 10 9 9 9 9 9 9 8 8 8 8 9
32 34 32 28 24 23 23 26 27 28 27 24 26 28 27 20 17 13 13 14 13 11 11 11 12 12 12 12 13 13 13 13 13 12 12 11 10 10 9 9 10 9 9 10 10 10 10 10 10
32 33 31 28 25 24 25 27 26 25 26 25 26 30 30 23 18 15 15 15 14 13 12 11 12 12 11 12 13 13 13 13 13 13 12 11 10 10 10 10 10 10 11 11 11 11 11 12 12
30 32 31 29 28 29 29 29 27 25 25 25 26 27 28 22 19 18 18 17 15 14 13 12 12 13 12 12 13 13 13 13 13 13 12 11 11 11 11 11 12 12 12 12 13 13 14 14 14
28 30 32 32 33 34 34 32 28 27 24 24 26 26 26 24 22 21 20 18 16 16 15 13 12 13 12 12 12 12 13 13 13 13 12 12 12 12 12 12 13 14 14 15 15 16 16 17 17
26 28 31 34 35 36 36 34 31 30 28 26 27 28 28 24 22 23 22 21 19 16 15 14 14 13 13 13 13 13 14 14 13 13 13 13 13 13 13 14 15 16 16 17 18 19 20 20 21
25 27 30 32 33 35 34 35 34 32 30 29 28 30 29 26 24 24 24 24 20 16 16 15 15 14 14 14 15 15 14 14 13 14 14 15 14 14 15 16 17 19 19 20 21 22 23 23 24
24 26 28 29 30 30 31 32 32 31 31 30 29 29 29 29 28 28 26 24 21 18 16 16 15 15 16 16 16 16 16 15 15 16 16 16 17 17 18 19 20 21 22 22 23 25 26 26 27
21 22 23 22 24 26 28 28 27 28 29 30 29 30 29 30 30 29 29 27 24 21 18 17 17 17 17 16 16 16 17 16 16 17 18 19 19 20 21 22 23 23 24 25 26 27 28 28 29
16 16 16 14 18 22 25 23 20 22 26 28 27 27 26 27 29 30 30 27 25 23 20 19 19 19 18 17 17 18 18 18 18 19 19 20 21 22 23 24 25 27 27 28 29 30 30 31 31
8 10 11 11 16 19 21 21 20 25 25 25 26 27 27 29 29 31 29 27 25 24 22 22 21 20 19 18 19 19 19 19 20 21 21 22 22 24 25 27 29 30 31 31 32 33 34 34 34
13 14 14 14 17 18 20 21 23 24 24 26 27 29 29 28 30 30 30 26 26 25 24 24 22 21 21 20 20 21 21 22 23 23 24 25 25 27 28 29 31 32 34 34 34 35 34 34 34
15 15 15 17 19 18 20 22 25 25 26 27 29 29 29 28 30 29 28 25 25 25 25 25 25 24 23 22 23 23 24 25 26 26 27 27 28 29 30 30 31 33 34 35 37 36 35 34 34
15 15 16 17 18 19 20 24 26 25 27 28 29 28 27 28 27 27 27 27 25 26 26 27 27 26 25 25 25 25 26 27 28 28 29 30 30 30 31 31 32 33 34 35 36 35 35 33 32
14 15 16 18 18 19 20 22 24 27 29 30 29 29 27 27 28 28 27 29 27 27 27 28 29 29 27 26 27 28 28 29 29 30 31 32 31 32 32 32 32 33 33 33 33 34 34 33 32
13 15 17 17 19 19 20 22 24 27 29 30 30 29 28 27 27 27 28 28 28 28 29 29 29 30 28 28 28 29 30 30 30 31 32 33 34 34 34 33 33 33 33 32 33 33 33 33 33
14 15 17 17 17 21 20 22 25 26 25 26 26 28 28 28 27 28 29 29 30 30 32 31 31 31 32 31 31 31 32 32 32 33 33 34 34 34 34 34 35 35 34 34 35 35 35 34 34
13 13 13 13 16 18 18 22 28 27 24 23 24 26 28 28 28 29 29 30 31 32 32 32 33 33 34 34 33 33 34 34 35 35 36 36 35 36 36 36 36 37 37 37 37 36 37 37 37
13 14 14 15 16 17 20 27 30 28 23 22 22 24 26 28 28 28 29 29 31 32 33 33 33 33 34 35 35 36 36 37 37 37 38 38 37 37 38 38 37 38 38 38 38 38 38 38 40
11 14 17 17 16 18 22 27 30 28 26 24 23 24 25 27 28 28 28 29 29 30 31 31 32 33 34 34 35 36 37 38 38 38 39 39 39 40 40 40 40 39 40 39 39 38 39 40 42
10 14 16 16 17 17 19 24 26 28 25 25 24 25 25 26 28 28 28 28 29 29 30 31 32 33 34 35 37 38 38 39 39 40 40 41 40 41 41 41 40 40 40 40 40 41 41 43 44
10 12 14 14 17 17 16 21 22 24 22 23 23 23 24 25 26 28 28 28 29 30 30 31 31 32 34 35 37 38 39 40 41 41 41 41 41 41 41 40 40 40 40 41 42 43 43 45 46
8 11 13 14 15 16 18 20 17 17 19 20 22 23 23 24 25 27 28 28 29 30 31 32 33 33 34 35 36 38 39 39 40 40 41 41 41 42 41 41 40 40 41 41 42 43 44 46 46

GEFSSGP_500_meanwind_090.txt.gz
Wind_Speed
18 17 17 16 15 14 14 16 18 16 14 13 13 13 11 8 9 10 11 12 9 7 7 7 8 9 11 12 12 14 14 14 14 13 12 12 12 12 12 12 11 11 10 9 8 8 8 7 7
21 20 20 18 16 14 16 19 19 17 14 14 15 13 11 8 8 11 12 11 9 8 8 9 9 10 11 13 13 14 15 15 15 14 13 13 12 12 12 12 11 11 9 9 8 8 7 6 6
24 23 23 21 17 15 17 21 21 17 15 14 14 14 12 7 8 11 11 11 9 9 9 10 11 12 12 13 14 15 15 15 14 14 13 13 13 12 12 11 11 10 9 8 8 8 7 6 6
27 26 25 22 17 16 19 21 22 19 16 16 16 16 11 8 8 10 10 11 10 10 10 11 12 12 13 14 15 15 15 15 14 14 14 13 13 12 11 11 10 9 9 9 8 8 7 6 6
28 29 27 23 18 18 20 21 22 20 18 18 18 18 12 9 9 9 10 10 9 10 10 11 12 12 13 14 15 15 15 15 14 14 14 13 12 12 11 10 10 9 9 9 8 8 7 6 6
29 30 29 25 21 21 22 23 23 22 19 20 21 20 15 8 8 8 10 10 9 9 10 10 11 12 13 13 14 14 15 15 15 14 14 13 12 11 11 10 10 9 9 8 8 8 7 7 6
30 31 30 27 25 24 24 27 26 25 22 22 24 23 16 10 10 10 10 10 9 9 10 10 11 12 13 13 14 14 14 14 14 14 13 12 12 11 11 10 10 9 9 8 8 8 7 7 7
30 31 30 28 27 26 28 30 28 26 23 24 26 24 20 11 11 10 10 10 10 10 10 10 11 11 12 12 13 13 13 14 13 13 12 12 12 11 11 10 10 9 9 8 8 8 7 7 8
29 29 28 28 28 28 31 32 31 29 26 26 26 24 21 17 13 11 11 12 13 13 12 12 11 12 12 12 12 13 13 13 13 12 12 12 11 11 11 10 10 10 9 9 8 8 8 9 9
27 26 25 28 30 31 33 33 32 31 28 27 25 25 23 20 16 15 13 14 15 14 14 13 12 12 12 12 12 12 12 12 12 12 12 12 12 11 11 10 10 10 9 9 9 9 10 10 11
26 25 25 28 31 33 34 33 33 32 30 29 28 27 23 20 19 18 17 17 18 17 16 14 13 12 12 12 12 12 11 11 11 12 12 13 13 12 11 11 10 10 10 10 10 10 11 12 13
25 24 26 28 31 34 36 35 34 33 31 31 29 28 24 22 20 19 19 18 19 19 19 16 15 14 13 13 13 13 12 12 12 12 13 13 13 12 11 11 11 11 11 11 11 12 13 14 15
24 25 26 29 32 34 36 36 35 34 32 31 30 27 24 22 20 21 21 20 20 20 19 18 16 14 15 14 13 13 13 13 12 13 13 13 13 13 12 12 12 11 12 12 13 14 15 16 17
23 25 26 27 31 34 36 36 36 34 33 32 31 29 26 23 23 23 22 22 22 21 19 19 17 15 15 14 14 13 13 13 13 13 14 14 13 13 13 12 12 13 13 14 15 15 17 19 20
23 23 23 23 26 29 33 35 36 34 34 34 32 31 29 28 27 26 24 23 23 22 21 20 18 17 16 16 15 15 14 14 14 15 15 15 15 14 13 13 13 13 14 15 16 17 19 21 23
21 21 20 19 22 24 30 31 31 33 35 35 34 34 33 32 31 29 27 25 24 23 23 22 21 20 19 17 17 16 15 15 15 15 15 16 16 16 15 14 15 15 16 17 18 19 21 23 24
18 18 17 17 19 21 25 26 27 30 33 35 35 35 34 33 33 31 28 27 25 24 25 25 24 23 21 20 19 18 17 17 17 17 17 17 17 16 16 16 16 17 18 18 19 21 23 24 25
15 15 16 16 15 17 20 22 24 26 29 32 34 35 35 35 34 32 30 28 28 27 27 26 27 25 24 23 23 21 20 19 19 19 19 17 17 17 17 17 18 19 19 20 21 22 23 24 26
14 14 15 14 14 17 19 21 23 24 27 29 32 33 33 34 34 33 32 30 31 30 27 27 27 25 24 24 23 23 20 20 20 19 18 17 16 16 17 18 18 18 19 19 20 22 24 25 25
13 14 14 13 14 16 18 21 23 24 25 27 28 30 30 31 32 32 32 31 29 29 27 25 24 24 23 24 24 23 22 22 21 20 19 18 17 17 18 19 20 20 20 20 21 21 22 23 24
14 14 15 15 17 17 18 21 23 23 24 25 26 27 29 30 30 29 28 28 28 29 29 26 22 24 23 23 23 23 24 23 22 21 20 20 19 19 20 20 21 21 21 21 22 22 23 24 24
15 15 16 16 18 19 20 23 24 24 24 24 24 26 28 29 29 29 29 28 28 28 27 25 23 23 23 22 23 24 25 24 24 23 22 21 20 21 22 22 22 22 23 23 23 24 26 27 27
14 16 17 17 19 20 21 23 25 25 26 25 25 26 28 29 29 29 30 30 29 29 27 25 24 23 24 23 23 24 25 25 25 24 23 23 23 23 24 24 24 24 23 24 25 27 28 29 30
14 15 17 18 20 20 20 23 24 24 24 25 26 26 27 29 29 29 29 29 28 27 27 26 25 25 25 24 23 24 25 25 25 25 24 25 25 25 25 25 26 26 25 27 27 29 30 32 33
13 14 15 16 18 19 20 23 24 24 25 24 25 25 25 27 28 28 28 27 27 27 27 27 28 26 26 26 26 26 26 27 28 26 26 26 26 26 26 26 27 28 29 30 31 32 33 34 35
12 14 15 15 16 17 19 21 22 23 24 24 24 23 24 26 27 28 29 29 28 27 28 28 28 28 27 28 28 28 27 27 27 26 26 27 28 28 28 29 30 31 32 33 34 35 36 37 38
12 14 16 16 16 17 19 21 21 21 23 23 23 24 24 25 26 27 28 28 28 28 28 28 28 29 29 29 29 29 29 29 28 29 29 29 30 30 31 32 33 33 33 35 36 37 38 39 39
11 12 15 17 16 17 18 19 22 22 23 23 23 25 25 25 26 26 26 27 28 28 29 29 29 29 30 30 30 30 30 30 30 30 31 32 32 32 33 33 33 33 34 35 37 38 39 39 40
9 11 14 16 17 17 17 17 18 18 19 21 22 25 25 24 25 25 25 26 26 27 27 28 28 29 30 30 31 31 31 31 31 31 32 32 33 33 33 34 35 35 36 37 38 38 39 40 40
8 8 11 13 15 15 16 15 13 14 15 16 18 19 21 23 24 24 25 26 26 27 28 28 28 29 30 30 31 31 32 32 32 33 33 34 34 35 35 36 36 37 37 38 38 38 39 40 40

GEFSSGP_500_meanwind_096.txt.gz
Wind_Speed
21 19 18 17 16 15 14 16 18 20 20 19 18 16 15 14 13 11 8 6 4 4 5 6 8 8 8 8 7 7 7 7 6 7 7 7 8 8 8 8 8 9 9 8 8 7 7 7 7
23 22 21 19 18 15 14 17 19 21 21 20 18 17 15 14 13 11 10 7 5 5 6 7 8 8 8 8 8 8 8 8 8 8 8 8 9 9 9 8 8 8 7 7 6 6 6 6 6
25 25 24 22 18 15 16 19 21 22 22 20 19 16 15 14 12 10 9 7 6 7 7 8 9 9 9 9 9 9 9 9 9 9 9 10 10 10 9 9 8 7 6 6 6 6 6 6 6
26 27 26 23 19 17 19 21 23 24 23 22 20 17 15 12 12 11 10 8 9 8 9 10 10 10 10 10 10 10 10 10 10 10 11 11 10 10 9 9 8 7 6 6 6 6 6 6 6
26 28 28 24 21 20 22 24 25 26 25 24 22 19 17 14 13 12 10 10 10 10 10 10 10 10 10 10 10 10 10 10 11 11 11 11 11 11 10 9 8 7 6 6 6 6 6 6 6
27 28 28 25 23 23 25 27 28 28 28 27 24 21 18 16 16 14 11 10 11 11 11 10 11 11 10 10 10 11 11 11 11 12 12 12 12 11 10 9 8 8 7 7 6 6 6 6 6
27 28 27 25 25 26 27 30 31 31 30 29 27 24 21 18 17 15 12 11 11 12 11 10 10 10 10 10 11 11 11 11 12 12 12 12 12 11 10 9 9 8 8 7 6 6 6 6 6
26 27 26 25 26 27 30 32 33 33 32 31 29 25 22 21 18 16 14 12 11 11 11 10 10 10 10 10 10 11 11 12 12 12 12 12 12 11 11 10 9 9 8 8 7 7 6 7 7
24 24 24 25 27 28 32 34 35 35 34 33 30 27 23 21 19 18 16 14 12 12 11 10 10 10 11 11 12 11 12 12 12 13 13 13 12 12 11 11 10 10 9 9 8 8 8 8 7
22 22 23 25 27 29 31 34 36 36 36 34 32 29 26 23 22 19 17 15 14 13 11 10 11 11 11 11 12 13 13 13 13 13 13 13 13 13 12 12 11 11 11 10 10 10 9 9 9
21 22 23 24 27 28 30 33 36 37 36 34 32 30 27 24 22 19 16 15 16 14 12 11 11 11 11 12 13 13 14 14 14 14 14 14 14 14 13 13 13 13 12 12 12 12 11 11 11
22 22 23 24 26 28 30 32 35 36 36 35 34 31 27 24 22 18 17 16 16 15 14 13 14 13 12 13 13 13 14 16 15 15 15 15 15 15 15 15 15 15 14 14 13 13 13 13 13
23 23 23 24 26 28 30 32 34 35 35 35 34 31 28 25 22 19 18 17 16 16 16 16 16 15 14 14 14 14 14 15 17 16 16 17 17 17 16 16 17 16 16 15 15 15 15 14 15
24 24 24 24 25 27 30 32 33 33 35 35 33 31 29 27 24 22 20 19 17 16 16 16 16 16 16 16 15 16 16 16 18 18 18 18 19 19 18 18 18 17 17 16 16 17 16 16 16
24 23 23 24 25 27 30 31 32 32 34 34 33 32 30 28 26 24 22 20 18 18 17 16 15 17 18 18 19 18 19 19 19 20 20 20 20 21 20 20 19 19 18 18 18 18 18 18 19
23 23 22 23 25 27 29 29 30 32 33 34 33 32 31 29 27 25 23 22 21 19 18 18 17 18 18 20 21 20 21 21 21 22 22 22 22 22 22 21 21 20 20 21 21 20 20 20 21
22 22 22 22 25 26 28 29 29 30 31 32 32 32 31 30 29 27 25 23 23 22 21 21 21 21 20 21 23 22 23 23 24 24 24 24 25 24 24 23 23 22 22 22 23 22 22 22 22
22 22 21 22 24 26 27 28 28 29 30 30 31 31 31 30 29 28 26 25 24 23 23 22 22 22 23 24 24 25 26 26 26 26 27 26 26 26 26 26 25 25 24 24 23 23 23 23 23
20 20 20 21 23 25 26 26 26 26 28 28 28 29 30 30 29 29 28 26 25 24 24 24 24 24 24 25 25 25 27 29 29 28 28 28 27 28 28 27 27 26 26 26 25 25 24 24 24
18 18 19 20 22 24 25 25 24 25 26 27 28 28 29 29 28 28 28 27 26 25 25 26 25 25 25 26 26 27 28 28 28 29 27 27 28 28 28 27 27 27 27 26 27 27 27 27 27
17 17 18 20 21 23 24 23 22 22 23 25 26 27 27 27 28 28 28 27 26 26 26 26 26 26 26 26 27 28 28 29 30 30 30 29 28 26 27 27 25 25 25 25 25 26 26 28 28
15 17 18 19 21 21 22 23 22 21 22 23 23 23 25 26 27 27 27 27 27 27 26 27 27 27 27 27 27 27 28 26 26 27 28 28 27 27 27 26 26 26 25 25 26 27 27 27 28
15 16 17 18 20 21 21 22 21 20 20 21 22 23 25 25 26 26 26 27 27 27 27 27 27 27 26 25 26 25 25 24 25 26 26 26 27 27 27 26 26 26 26 26 27 27 28 29 29
15 15 16 17 18 19 19 20 20 20 20 21 21 23 24 25 25 25 25 25 26 27 27 27 27 27 26 26 25 24 22 22 23 25 26 26 27 28 28 27 27 28 29 30 30 29 30 31 32
15 15 15 16 16 17 18 19 19 20 20 22 22 23 24 25 25 25 25 25 25 26 27 26 26 26 26 27 26 24 22 22 24 25 25 25 26 27 28 28 29 30 30 30 30 31 32 33 34
14 13 14 15 15 15 16 18 18 19 20 21 21 22 23 25 26 25 25 25 25 25 26 26 26 27 27 28 27 25 24 23 24 24 24 24 25 25 26 27 28 30 31 31 32 32 32 34 35
12 12 12 14 14 15 16 17 18 19 19 20 21 22 23 24 24 25 25 26 26 25 26 27 26 26 27 27 27 26 24 23 24 24 25 25 25 25 25 26 26 27 29 30 32 32 34 35 36
10 11 12 13 13 14 14 15 16 17 17 18 19 21 22 23 22 23 25 25 25 25 25 25 25 25 25 26 26 24 24 24 24 25 26 26 25 25 26 27 28 28 29 30 32 34 35 36 37
10 10 11 12 14 15 15 14 13 14 14 16 18 19 20 21 23 24 25 26 25 25 25 25 25 24 24 24 25 25 24 25 25 26 26 26 26 27 28 29 29 30 32 33 34 36 36 37 38
9 10 11 12 12 13 14 13 12 12 13 14 14 15 17 19 20 22 23 24 24 24 25 25 24 24 25 25 25 25 25 25 25 25 26 26 26 27 28 29 30 31 32 33 34 34 35 37 38

GEFSSGP_500_meanwind_102.txt.gz
Wind_Speed
19 18 16 15 14 13 13 16 17 17 16 15 15 13 12 13 13 13 11 12 13 13 12 14 13 13 12 11 11 11 11 11 10 9 8 7 6 5 4 4 3 3 3 3 3 2 2 2 2
21 20 18 17 15 13 14 18 18 19 17 16 15 14 12 12 13 13 13 12 12 13 13 15 15 14 13 12 12 12 12 12 11 10 10 8 8 7 6 5 5 5 4 4 4 4 3 3 2
22 21 21 19 17 15 17 20 20 20 18 16 15 14 13 12 12 12 13 12 12 13 14 15 15 14 13 13 12 13 13 12 12 12 11 10 9 8 7 7 7 6 6 6 6 5 5 4 3
23 23 22 21 19 19 21 22 21 21 19 18 16 15 14 13 13 12 12 13 13 14 15 15 15 15 14 13 13 13 13 13 13 13 12 12 11 10 9 9 8 8 8 7 7 7 6 5 4
23 23 23 22 21 22 23 24 23 22 21 19 18 16 15 14 14 14 13 13 14 15 16 16 17 16 15 15 14 14 14 14 13 13 13 13 13 12 11 11 10 10 9 9 8 8 7 6 5
23 23 23 22 23 24 25 26 26 24 23 21 19 17 16 15 14 14 14 14 15 16 17 18 17 17 16 16 15 15 15 14 14 14 14 14 14 13 13 12 11 11 11 10 10 9 8 7 7
23 23 23 23 24 25 27 27 27 26 25 24 21 19 17 15 15 15 15 15 15 15 16 16 17 17 17 17 17 16 16 15 15 15 15 15 15 14 14 13 13 12 12 11 11 10 9 9 8
22 22 23 23 24 26 27 27 28 27 26 25 23 21 20 18 17 16 15 15 16 16 16 16 17 18 19 19 18 18 17 16 16 16 15 15 15 15 15 14 14 13 13 13 12 11 11 10 10
20 21 22 22 24 26 26 27 28 27 26 25 24 22 21 19 19 18 17 16 17 17 16 18 18 18 18 18 19 19 18 18 17 17 16 16 16 16 16 15 15 14 14 13 13 13 12 12 12
18 19 21 21 22 24 25 26 28 27 26 25 25 23 22 21 20 19 19 18 19 19 18 19 18 18 19 19 19 19 19 19 18 17 16 16 16 17 17 16 16 16 15 15 15 14 14 14 13
18 19 20 20 21 22 24 26 27 27 27 27 26 24 23 21 20 20 20 20 20 20 19 19 19 19 19 19 20 21 20 20 19 18 17 17 17 17 17 17 17 17 17 16 16 16 16 16 16
18 19 20 21 21 22 24 25 26 28 28 28 26 24 23 23 22 21 22 22 21 20 20 19 20 20 20 21 22 22 22 21 20 20 19 19 19 19 18 19 18 18 18 18 18 18 18 18 17
18 19 20 22 22 23 23 24 26 27 29 28 26 25 25 24 24 23 24 23 22 22 21 19 19 20 21 21 22 23 22 22 21 20 20 20 20 20 20 20 20 20 19 19 19 20 20 20 19
19 20 20 22 23 23 23 24 26 27 28 28 27 27 26 26 26 25 24 24 22 22 21 21 20 21 21 23 23 22 23 21 21 21 21 21 21 21 22 22 22 21 22 21 21 22 22 21 21
19 20 21 22 23 24 24 25 25 26 27 27 27 27 27 27 27 26 25 24 23 23 23 22 22 22 23 24 25 23 23 23 23 23 23 23 23 23 24 23 23 23 23 23 23 23 23 22 22
18 19 21 23 23 23 23 23 25 25 26 26 27 28 28 29 28 28 28 27 26 25 24 24 23 23 24 25 25 25 25 25 25 26 25 25 25 25 24 24 24 25 25 24 24 24 24 24 24
18 18 20 22 23 23 22 23 25 24 25 25 26 27 28 29 30 29 29 29 28 27 26 24 23 24 26 26 25 25 26 26 26 27 27 27 27 26 26 26 26 26 26 26 26 26 26 26 26
18 19 20 22 23 22 22 23 23 23 23 24 25 27 28 29 30 30 29 30 30 28 26 26 24 24 25 26 25 24 25 25 26 26 26 27 28 28 29 28 28 28 28 28 29 28 29 29 29
18 19 20 21 22 22 22 21 21 22 23 23 24 26 27 28 30 30 30 31 31 30 28 27 26 25 25 25 25 24 24 24 25 26 27 28 28 28 29 27 27 29 30 30 31 31 30 30 31
18 18 18 20 21 20 21 20 20 21 22 23 23 24 26 27 29 30 31 31 31 30 29 28 27 26 26 26 25 25 26 27 27 28 28 28 28 29 28 28 28 30 31 31 31 32 32 32 32
17 17 16 17 19 19 19 19 20 20 21 21 23 24 25 26 28 30 31 31 31 31 30 29 28 27 27 28 28 27 27 28 28 28 29 28 28 29 30 30 31 32 32 32 32 32 33 33 33
15 16 15 16 16 16 17 16 17 18 19 20 21 23 25 25 27 28 30 30 31 31 30 29 29 29 29 29 30 28 27 27 27 28 29 29 29 30 32 32 33 33 33 33 33 33 33 33 33
14 15 15 15 15 15 15 15 16 16 17 19 20 22 23 25 27 28 29 30 30 31 30 30 30 31 31 30 30 29 28 28 27 27 28 30 30 30 31 33 33 33 34 33 33 33 34 33 34
13 14 14 14 14 14 14 15 15 16 16 17 19 20 22 23 25 27 28 29 29 30 30 30 31 31 31 30 30 30 30 29 28 28 28 29 31 32 33 34 35 35 34 34 34 34 35 34 34
13 12 12 12 12 13 15 15 16 16 15 16 18 19 21 22 23 24 26 28 29 29 30 30 31 31 31 31 30 31 31 30 29 28 28 28 29 31 32 33 34 35 35 34 35 36 36 35 35
12 11 11 12 12 12 15 15 15 14 15 15 16 18 20 22 23 23 24 25 27 28 29 30 30 31 31 31 30 30 29 28 27 27 27 26 26 28 29 31 33 34 34 34 35 35 35 35 35
11 11 12 13 12 12 13 14 14 14 15 15 15 16 18 18 20 23 24 25 26 27 28 28 29 30 31 31 31 30 27 27 27 26 26 26 27 27 28 28 29 31 32 32 33 33 34 35 36
11 12 12 10 10 11 13 14 13 13 14 15 15 16 17 18 18 20 23 26 26 26 27 28 28 29 30 31 30 29 28 28 27 27 27 26 25 25 25 26 27 29 31 31 32 33 34 35 35
11 10 10 9 10 11 12 13 13 13 13 14 15 15 15 17 18 19 21 23 25 26 27 28 28 28 28 29 29 29 28 28 27 26 26 26 26 27 27 28 28 28 29 30 30 32 34 34 35
9 9 9 10 11 12 12 13 13 13 12 13 13 13 14 16 17 18 19 21 23 24 26 27 27 27 27 27 27 26 27 27 27 27 26 25 26 27 28 28 29 29 29 29 30 32 32 34 35

GEFSSGP_500_meanwind_108.txt.gz
Wind_Speed
17 16 16 15 13 10 5 4 9 14 20 19 16 15 14 16 16 16 14 13 12 13 14 15 14 14 14 14 15 14 14 14 14 14 14 14 13 12 11 11 10 9 8 7 6 5 4 4 3
18 18 17 17 15 10 4 6 12 16 22 19 16 15 15 17 17 15 14 14 13 14 15 15 15 16 16 16 16 15 15 15 15 15 15 15 15 14 13 12 11 10 9 8 7 6 5 5 4
18 19 19 18 16 11 8 10 15 19 22 20 18 17 16 17 17 15 14 14 13 14 15 15 15 16 17 18 17 17 16 15 16 16 16 16 16 15 15 14 13 12 10 9 8 8 7 6 6
19 19 19 18 16 12 11 13 19 20 20 20 18 17 17 18 17 16 15 15 14 14 16 16 15 16 18 18 18 18 17 16 16 17 17 18 18 17 16 15 14 13 12 11 10 9 8 8 7
19 19 19 18 15 14 14 18 22 22 20 19 18 18 18 20 17 16 15 16 15 15 16 17 17 18 19 20 19 19 18 18 18 18 18 18 18 18 17 16 15 14 13 12 11 10 10 9 9
19 19 19 16 13 13 17 23 25 23 21 20 19 20 20 21 19 16 17 17 16 16 15 16 17 18 19 20 21 21 21 20 19 19 19 19 19 18 17 17 16 15 14 13 13 12 11 11 10
19 19 18 15 12 14 20 24 25 22 20 20 20 21 21 22 19 18 18 18 18 17 16 16 18 19 20 20 21 22 22 21 21 20 20 20 20 19 18 18 17 16 15 15 14 13 12 12 12
18 18 17 15 15 16 23 26 27 24 22 20 21 21 23 22 19 18 18 19 18 18 18 17 18 19 19 20 20 21 22 22 22 22 21 21 21 20 19 19 18 18 17 16 16 15 14 13 13
16 16 14 12 15 17 23 26 24 24 23 23 23 23 26 24 21 20 20 21 20 19 18 18 19 20 20 22 22 21 22 23 23 23 23 22 22 21 20 20 20 19 18 18 17 16 15 15 14
15 14 11 16 20 22 22 24 22 22 21 20 22 24 25 23 20 20 22 22 22 22 20 19 20 20 21 21 22 23 23 24 23 24 24 24 23 22 21 21 21 20 19 19 18 17 17 16 16
14 15 16 20 22 23 22 22 21 21 19 21 23 24 26 23 21 22 22 22 23 23 22 21 20 21 22 22 22 22 23 24 24 25 24 24 23 23 22 22 21 21 20 20 19 19 18 18 17
14 16 18 20 21 21 21 21 22 21 20 24 24 26 27 24 22 23 23 23 23 24 23 21 22 23 24 23 23 24 23 24 24 24 24 24 23 23 22 22 22 22 21 21 20 20 20 20 19
14 15 18 19 20 20 20 21 22 22 23 25 25 26 26 24 24 26 26 25 25 26 25 25 24 24 24 23 24 24 24 24 25 25 25 25 24 24 23 22 23 22 22 22 22 21 21 21 21
14 15 16 17 19 19 20 22 23 23 24 25 25 27 27 26 26 28 27 26 27 27 27 28 26 25 24 24 24 24 24 24 25 25 25 24 24 25 24 22 22 22 22 23 22 22 22 21 22
13 14 15 17 18 19 20 20 22 23 25 26 27 28 28 28 28 28 27 28 28 28 28 28 27 26 26 25 25 25 25 24 24 25 24 24 25 25 26 23 22 23 24 23 23 23 23 23 23
11 12 12 14 18 19 18 17 20 24 25 26 27 28 28 30 29 29 30 30 30 29 30 29 29 29 26 25 25 25 25 24 24 25 24 24 24 25 26 25 25 24 24 24 24 24 24 25 25
8 9 8 12 20 21 20 17 19 24 26 27 28 29 29 30 29 31 32 31 31 30 30 31 30 29 28 27 27 27 26 26 26 26 26 25 24 25 26 27 27 26 26 25 25 26 26 27 26
7 10 11 15 19 22 21 19 20 24 27 28 28 28 29 29 30 31 32 32 33 33 32 31 31 31 29 28 27 25 25 25 26 27 26 25 25 26 26 27 27 27 27 26 26 26 27 28 28
13 15 16 16 18 22 22 21 21 24 26 25 25 26 28 28 29 31 31 32 33 34 34 32 32 32 31 30 27 24 24 24 25 26 26 26 27 27 28 27 27 28 28 27 27 27 28 28 29
14 14 14 15 18 21 21 21 22 23 24 25 25 26 26 28 29 30 31 32 33 34 34 34 34 33 32 30 27 26 25 25 24 25 26 27 28 29 27 28 29 29 29 29 29 29 30 30 30
13 13 14 16 18 21 20 20 22 22 23 24 25 25 27 28 28 29 30 30 32 33 34 34 33 33 32 30 29 27 27 27 27 25 25 27 28 30 31 30 30 31 31 31 31 30 31 31 31
13 14 16 17 17 17 18 20 20 22 23 24 24 25 25 26 25 27 28 29 30 32 33 33 34 33 32 32 32 30 27 27 28 27 27 27 28 29 30 30 31 32 32 31 31 32 32 32 33
14 15 16 16 16 16 17 20 20 23 24 23 23 24 22 23 24 25 27 29 30 31 32 33 34 34 33 32 32 31 30 30 28 28 29 29 29 28 28 29 30 32 33 32 33 33 33 33 35
15 14 14 13 15 17 17 19 20 24 23 24 23 21 20 22 24 25 26 28 29 29 31 32 33 33 34 34 33 32 31 31 30 29 30 30 30 29 29 29 30 33 34 34 34 35 36 36 36
15 15 14 15 16 17 16 19 22 24 24 24 22 20 20 21 23 24 26 27 28 29 31 32 32 33 33 33 32 32 31 31 31 31 31 30 30 30 30 30 30 32 33 34 34 36 37 37 38
15 15 14 16 17 17 18 20 21 21 23 21 21 20 20 20 22 24 25 27 28 29 31 32 32 33 33 33 33 33 33 32 32 32 32 32 31 31 31 31 31 32 32 33 34 34 35 37 38
14 13 14 16 16 18 19 20 21 20 18 19 19 20 20 21 22 23 24 26 28 29 30 31 32 33 34 33 32 32 32 32 32 32 32 32 31 31 31 32 32 32 31 31 31 33 34 35 36
12 13 14 14 17 18 18 18 18 18 18 18 19 19 19 20 21 23 24 25 26 27 27 29 29 30 30 31 32 31 31 31 31 31 31 30 30 30 29 29 29 29 30 31 31 31 32 34 34
11 12 13 14 16 18 19 17 18 18 19 19 19 19 19 20 21 23 23 24 25 26 27 28 28 29 30 30 31 31 30 30 30 30 30 30 30 29 28 28 28 27 28 28 29 29 30 31 32
11 11 12 13 15 17 19 20 19 18 18 18 18 19 20 20 21 22 23 24 24 25 26 27 27 28 29 30 30 31 30 30 30 29 29 29 29 29 29 28 29 28 27 28 29 29 30 30 31

GEFSSGP_500_meanwind_114.txt.gz
Wind_Speed
19 18 16 15 13 11 11 12 12 10 10 11 13 15 16 15 14 12 10 9 9 8 8 8 8 7 8 8 9 10 11 12 13 13 13 13 13 13 13 13 13 13 13 12 11 10 9 8 7
20 19 18 16 14 12 13 14 13 12 12 13 15 16 16 15 14 12 11 11 10 9 9 9 9 9 9 10 10 11 12 13 13 14 14 14 14 14 14 14 14 14 13 13 12 11 10 9 8
20 19 19 16 15 15 16 15 15 14 13 15 18 19 18 16 14 13 13 12 11 10 10 10 10 10 10 11 12 12 13 14 14 15 15 16 15 15 15 15 15 15 14 13 13 12 11 9 8
20 20 18 16 15 17 18 18 17 15 14 16 18 21 20 17 15 14 13 13 12 11 11 10 10 11 12 12 13 14 14 15 15 16 17 17 16 16 16 16 16 16 15 14 13 13 12 10 9
20 20 18 16 17 19 20 18 17 17 16 18 20 21 21 19 16 15 14 13 13 12 12 11 12 12 13 13 14 15 15 16 17 17 18 18 18 17 17 17 17 17 16 15 14 14 13 11 10
20 19 18 17 19 21 22 21 19 18 18 19 21 23 22 20 18 17 16 15 15 14 14 13 13 14 14 14 15 16 16 17 17 18 18 18 18 18 18 18 18 17 17 16 15 15 14 13 11
19 18 17 18 20 23 23 21 19 19 20 22 24 25 24 22 20 19 18 17 16 16 16 15 16 15 15 16 16 17 18 18 19 19 19 20 20 20 19 19 19 18 18 17 16 16 15 14 13
19 18 18 19 22 24 23 20 19 20 22 24 26 26 26 26 23 21 20 18 18 18 18 17 18 16 17 17 17 18 18 18 19 20 20 21 21 21 21 20 20 19 19 18 17 17 16 15 14
17 17 19 22 23 24 23 22 21 22 23 25 27 28 28 27 26 24 22 20 19 20 20 18 18 18 18 18 18 18 19 19 19 20 20 21 22 22 22 22 21 21 20 19 18 18 17 16 15
16 18 21 24 25 24 23 22 22 23 25 26 28 28 28 28 27 25 22 21 21 22 21 20 19 19 19 19 20 19 19 19 20 21 21 22 22 22 22 23 23 22 22 21 20 19 18 17 17
17 20 22 25 24 24 22 22 23 24 25 26 27 27 28 28 27 25 22 22 22 24 24 22 20 21 21 21 21 20 20 20 21 22 22 23 23 23 23 24 24 23 23 22 21 20 19 19 18
18 20 22 23 23 23 23 23 24 24 25 26 26 27 27 27 26 25 24 23 23 23 25 26 23 22 22 22 21 22 21 21 20 21 22 23 23 23 22 23 24 23 23 22 21 21 20 20 19
18 20 20 19 19 20 21 23 24 25 25 26 25 25 25 26 26 26 26 25 25 25 24 25 25 23 23 23 23 23 23 23 22 21 22 22 23 23 23 23 23 24 24 23 21 20 21 21 20
17 18 17 17 17 18 19 20 21 23 25 25 25 25 25 26 26 27 28 28 26 26 26 26 25 24 24 25 24 23 24 24 22 22 23 23 23 23 22 22 22 23 23 22 21 20 20 20 20
13 13 13 14 14 14 15 16 19 21 23 24 24 26 26 26 27 28 28 28 28 28 28 27 27 25 25 26 25 24 25 24 24 24 24 24 24 25 24 23 23 22 22 22 22 20 20 20 20
10 10 10 10 11 12 14 14 16 18 20 21 23 24 25 25 26 27 28 29 29 29 30 28 28 27 26 26 26 26 26 26 25 26 25 25 25 24 23 23 23 22 22 23 23 21 21 21 21
10 10 10 10 10 11 12 13 14 16 18 19 21 22 23 24 26 27 28 29 30 30 30 28 29 29 29 28 28 28 27 27 26 25 25 25 26 25 24 24 24 24 24 24 24 24 23 22 22
10 10 10 9 10 12 13 15 16 17 19 20 21 21 22 24 25 26 28 29 30 31 31 30 30 29 29 30 29 28 26 26 25 26 25 25 26 25 26 25 25 24 24 24 25 26 25 24 24
11 10 9 9 11 14 15 17 19 20 21 22 22 23 23 23 25 27 28 29 30 31 31 31 31 32 30 29 30 28 28 27 25 25 26 25 24 25 25 26 26 26 26 25 25 26 26 25 25
11 11 10 11 12 15 18 21 21 22 23 23 23 23 24 25 25 27 28 29 29 29 30 30 30 31 31 30 29 29 29 27 27 25 25 24 24 23 26 27 27 26 26 27 26 26 26 27 26
11 11 11 13 15 18 20 22 24 24 23 24 23 23 22 23 24 26 27 28 28 29 30 30 29 29 30 30 30 29 29 28 26 25 25 24 23 22 23 25 25 24 23 25 26 27 26 26 26
11 11 12 14 17 19 20 23 23 24 23 23 22 21 20 20 22 23 25 26 27 28 28 29 29 29 29 30 29 29 28 27 26 24 23 22 23 24 24 24 25 24 25 25 25 25 27 27 27
12 11 13 15 16 17 19 22 22 22 21 21 23 22 21 21 22 24 25 25 27 28 28 28 28 28 29 29 29 30 30 29 28 27 25 23 24 25 24 24 24 25 26 26 26 27 28 28 29
13 14 15 15 16 16 17 21 21 21 22 23 25 24 23 22 22 23 24 24 25 26 27 26 28 28 28 28 29 29 29 29 28 27 26 26 26 25 24 25 25 25 26 27 28 29 29 28 29
14 15 15 14 15 15 16 19 19 19 20 21 21 20 21 23 22 22 22 22 23 24 24 25 26 27 27 28 27 28 28 28 29 28 28 27 27 27 25 25 25 25 25 26 28 29 30 30 31
13 14 15 15 14 14 15 16 16 18 20 20 18 18 19 19 19 19 19 21 22 24 24 25 25 25 26 27 28 28 29 30 29 29 28 28 27 27 28 28 27 26 25 26 27 29 30 31 32
13 14 14 15 14 14 14 15 17 18 17 16 16 16 17 16 16 18 19 21 22 24 24 25 25 26 26 27 27 28 28 28 28 28 27 26 26 26 26 27 27 26 25 26 27 28 29 29 30
13 12 13 14 14 15 14 16 18 17 15 15 16 16 16 16 17 18 19 20 21 22 23 24 25 25 26 26 26 26 27 27 27 27 27 26 24 24 25 25 26 25 24 23 24 26 27 28 29
12 13 13 13 14 15 15 16 17 16 15 16 16 15 16 17 17 18 19 20 21 21 21 23 22 23 24 24 25 26 26 26 26 26 25 25 25 25 25 24 24 24 24 23 24 25 26 27 28
11 11 11 12 14 14 15 16 16 16 16 16 16 16 16 17 17 18 19 20 21 21 21 22 22 23 23 24 24 25 25 26 26 25 25 25 25 24 24 24 24 24 24 24 24 24 25 26 27

GEFSSGP_500_meanwind_120.txt.gz
Wind_Speed
20 19 19 18 17 15 15 16 16 16 15 13 12 9 7 7 7 6 6 7 7 6 6 7 8 8 7 7 6 6 6 6 6 7 7 7 7 7 7 8 9 9 10 10 11 10 10 9 9
22 21 20 20 18 16 17 18 19 18 17 15 13 10 9 9 8 8 8 8 8 8 7 8 8 8 8 8 8 7 7 8 8 8 8 8 8 8 9 9 9 10 10 10 11 10 10 9 9
23 23 22 20 18 17 20 21 21 20 18 17 15 12 10 9 10 9 10 10 10 10 9 9 10 9 9 8 9 9 8 9 9 9 9 9 9 10 10 10 10 10 10 10 11 10 10 9 9
24 23 22 20 19 20 22 23 23 22 20 19 17 14 11 10 11 11 11 11 11 11 11 11 11 10 10 10 10 10 10 10 10 11 11 11 11 11 11 11 11 11 10 11 11 11 10 10 9
24 23 22 20 21 23 25 26 25 23 23 21 18 16 14 13 12 12 12 12 11 11 12 12 13 12 11 10 10 11 11 11 12 12 13 13 12 13 13 12 12 12 12 12 12 11 11 11 10
23 23 22 21 23 26 28 28 26 24 23 22 20 17 16 14 13 13 13 13 13 13 13 13 13 13 12 11 11 11 12 13 13 14 14 15 15 15 14 14 13 13 13 13 13 12 12 11 11
23 22 22 22 25 27 29 28 27 25 24 23 21 19 18 15 15 15 14 15 15 15 14 14 14 13 13 13 13 13 13 14 14 15 16 16 16 16 16 15 15 15 15 15 14 14 13 12 12
22 22 22 23 26 28 29 29 28 27 26 24 23 21 19 18 18 18 18 18 17 16 16 16 15 14 14 15 14 15 15 15 16 16 17 17 17 18 17 17 17 17 17 16 16 16 15 14 13
21 22 23 24 27 29 30 30 29 28 26 25 24 23 21 20 20 20 20 21 20 19 18 18 17 16 16 16 16 16 17 17 18 18 18 19 19 19 19 19 19 19 19 18 18 17 17 16 15
20 21 23 25 28 30 31 31 30 29 27 26 25 24 22 21 21 20 21 21 21 20 19 19 19 18 18 17 17 18 18 19 19 20 20 20 20 20 20 20 20 20 20 20 19 19 18 18 17
19 22 24 26 28 29 31 31 30 30 29 27 26 24 23 22 22 22 22 23 24 22 20 19 20 19 19 19 20 20 20 20 20 21 21 21 21 21 21 21 21 21 21 21 20 19 19 19 18
19 22 24 26 27 28 29 30 30 30 28 27 26 25 24 24 24 23 23 24 24 24 23 21 20 20 20 21 21 22 21 21 21 20 21 22 22 23 22 21 22 22 22 21 20 19 19 19 19
18 21 22 24 25 26 28 29 29 29 28 28 26 26 25 25 25 24 25 25 24 24 23 22 22 23 23 22 22 22 22 22 22 22 21 22 22 23 24 23 22 22 22 22 22 21 20 20 20
17 19 20 22 23 24 26 27 28 28 28 28 27 26 26 25 26 26 25 25 24 23 23 23 24 24 24 25 24 24 25 24 23 23 24 24 24 24 24 24 23 23 22 22 23 22 22 22 21
15 17 18 20 22 23 24 25 26 26 26 26 26 26 26 26 26 26 26 26 25 25 25 26 26 26 26 26 27 26 26 26 25 24 25 26 26 26 26 25 24 24 23 23 23 22 21 21 21
13 17 19 20 21 22 22 22 24 24 24 25 25 25 25 25 25 26 26 26 26 27 27 27 27 27 27 27 27 28 28 27 26 25 25 26 26 27 27 26 26 26 26 24 23 23 22 21 22
14 16 18 20 20 21 21 21 21 22 22 23 23 23 23 24 24 25 26 26 26 27 28 28 28 27 28 29 29 29 29 30 29 27 25 27 27 28 27 28 28 28 27 26 24 24 23 23 23
14 15 16 18 18 19 20 20 20 20 20 20 21 21 22 22 24 25 25 26 27 27 28 28 28 28 28 28 28 29 29 30 30 29 27 27 28 28 29 29 29 28 28 27 26 25 25 25 25
15 15 16 16 17 18 18 19 20 20 20 20 21 22 22 23 24 26 26 27 27 27 28 28 28 28 28 27 28 28 28 29 30 30 29 28 28 27 28 28 28 28 28 28 27 26 27 26 26
15 15 16 16 16 16 17 18 19 20 20 21 21 22 22 23 24 25 26 27 27 27 27 27 27 27 27 27 27 27 27 26 28 29 29 29 28 27 27 27 27 27 28 30 30 28 28 28 27
15 15 15 15 16 16 17 18 18 19 20 21 22 22 23 23 23 24 25 25 25 26 27 26 25 25 26 27 26 26 27 26 26 27 28 28 27 26 26 27 27 28 29 30 30 29 30 30 29
15 15 15 15 16 16 17 18 17 18 18 19 20 21 23 24 24 24 25 24 25 26 27 26 25 25 26 26 27 27 26 25 25 26 27 28 28 27 26 26 27 29 29 30 30 31 31 31 31
15 16 16 16 17 18 18 19 17 18 18 19 20 21 23 24 25 25 25 25 25 26 26 26 25 26 26 26 27 26 25 25 25 25 26 25 25 26 26 26 26 28 30 30 30 29 29 29 29
15 16 17 17 17 18 18 19 19 18 19 20 21 21 22 23 24 24 24 25 25 26 26 25 25 26 26 26 26 25 25 25 25 25 24 24 24 25 25 26 26 28 29 29 30 29 30 30 30
15 15 16 17 17 17 17 18 18 18 18 19 20 21 21 21 21 21 22 23 23 24 25 24 25 25 25 26 26 25 25 25 25 25 24 24 25 26 26 27 27 28 29 30 31 30 30 30 30
14 15 17 17 17 16 16 18 17 17 18 19 19 18 18 19 20 20 20 21 22 22 22 23 24 24 25 26 26 27 26 26 26 26 25 25 26 26 26 27 28 28 28 29 29 29 30 30 30
15 15 15 17 16 16 16 16 16 16 17 17 17 18 18 18 19 19 19 20 21 21 21 22 23 24 25 25 26 27 25 25 25 25 25 25 25 25 25 26 28 28 27 28 29 29 29 29 31
14 14 15 15 16 16 15 14 15 15 15 15 16 17 18 18 18 18 19 19 19 20 21 22 23 24 25 25 25 25 25 26 26 26 26 26 25 25 26 26 26 26 27 27 28 28 28 29 29
14 14 14 15 15 16 15 13 13 13 15 16 16 17 17 18 18 19 20 20 21 21 21 22 24 24 25 25 25 26 26 26 25 25 26 27 27 26 27 27 26 26 26 27 27 27 28 28 29
13 13 13 14 15 15 15 13 13 14 15 16 16 16 17 18 19 20 21 22 22 22 23 23 24 25 25 25 25 25 25 25 25 26 27 27 27 27 27 27 27 27 27 27 27 27 27 28 28

GEFSSGP_500_meanwind_126.txt.gz
Wind_Speed
18 17 17 16 15 14 14 17 17 16 15 14 12 11 10 9 8 7 6 6 5 6 6 5 5 5 6 7 8 8 9 8 8 7 7 6 5 4 3 3 3 2 3 3 3 3 4 3 3
19 19 18 18 16 15 17 19 19 18 16 14 13 12 11 11 9 8 7 6 6 6 6 6 6 6 7 8 9 9 10 9 9 8 8 7 7 6 5 5 4 4 4 4 4 4 4 3 3
20 20 19 19 18 17 20 22 21 19 17 16 14 13 12 12 10 9 8 7 6 6 7 7 7 7 8 9 10 11 11 10 10 10 9 9 8 8 7 7 6 6 6 5 5 5 5 4 4
21 20 20 20 19 22 23 23 22 20 18 17 15 14 13 12 10 9 8 8 7 7 8 8 8 8 9 10 10 11 12 12 11 11 10 10 9 9 9 9 8 8 7 7 6 6 6 5 5
21 20 20 20 21 24 25 24 22 21 19 18 16 16 13 12 11 10 8 8 8 8 8 9 9 10 10 11 12 12 13 14 13 12 12 11 11 11 11 11 11 11 10 9 8 8 7 7 6
20 20 20 20 23 24 25 24 23 21 20 19 18 18 16 14 12 11 10 10 9 9 8 10 10 11 12 13 14 14 14 15 15 14 14 13 13 13 13 13 13 13 12 11 11 10 9 9 8
20 20 20 22 24 25 26 25 24 23 22 20 19 19 18 16 14 13 13 12 11 11 10 11 11 13 14 14 14 15 15 16 16 15 15 15 15 15 15 15 15 15 14 13 13 12 11 11 10
19 19 20 22 23 25 25 25 24 24 23 21 20 20 19 18 16 15 15 14 13 13 13 13 14 14 15 15 15 16 16 16 17 17 17 17 17 16 17 16 16 16 16 15 15 14 13 12 12
19 19 20 22 24 25 25 25 24 24 23 22 21 21 20 19 18 18 17 16 15 15 15 15 15 15 15 15 16 17 18 18 18 18 18 18 18 18 19 19 19 18 18 17 17 16 15 15 14
19 19 22 22 23 24 24 25 24 24 23 23 22 21 21 20 19 19 18 17 17 16 16 16 16 17 17 17 17 18 19 19 19 19 19 19 19 19 20 20 20 20 20 19 18 18 17 16 16
19 20 20 21 22 22 23 24 24 24 24 24 23 23 23 21 21 20 19 18 18 18 17 17 17 17 18 19 18 19 20 20 20 20 20 20 20 20 20 21 21 20 20 20 19 19 18 17 18
18 19 19 20 21 22 23 23 24 24 24 23 23 24 24 23 23 22 22 20 20 19 18 18 18 19 19 19 19 20 20 21 22 22 22 22 22 21 21 20 20 21 21 21 20 20 20 19 19
17 17 18 19 20 21 22 23 23 23 24 24 24 23 23 23 23 22 22 22 22 21 20 19 20 20 20 19 20 21 21 22 22 23 23 23 23 23 23 23 23 22 23 22 21 21 21 20 20
16 17 18 19 20 20 21 22 22 22 22 23 24 24 24 24 23 23 23 23 22 22 21 21 22 22 22 22 22 22 22 23 24 24 25 25 24 24 25 24 25 25 25 25 24 23 22 22 21
14 15 16 17 19 20 20 20 21 20 21 22 23 23 24 24 23 24 24 23 23 23 23 23 23 23 23 23 23 23 24 24 25 26 27 26 26 26 26 25 24 25 26 26 25 24 24 23 23
13 13 15 16 17 17 17 19 19 19 20 20 21 22 22 23 24 24 24 24 24 24 24 24 24 24 24 24 24 25 26 25 26 27 28 28 27 28 27 26 24 25 26 27 27 26 25 24 25
12 12 14 15 15 15 15 18 17 18 18 19 20 21 22 22 23 23 24 24 24 24 24 24 25 24 24 24 24 25 26 26 27 27 27 27 27 28 28 27 26 26 26 27 28 28 26 26 26
12 13 13 14 14 14 14 15 16 16 18 19 19 21 22 22 23 23 23 23 23 23 24 25 25 25 25 24 25 25 26 27 27 27 27 27 28 29 28 28 28 28 28 27 28 29 28 28 28
13 12 13 14 13 13 14 15 15 16 17 18 19 20 20 21 22 23 23 24 23 23 24 24 24 25 25 25 24 25 26 27 27 27 28 28 28 29 29 29 29 29 29 29 29 29 29 29 29
10 10 12 13 12 12 13 14 15 16 17 18 19 20 21 22 23 23 24 24 24 25 25 25 24 25 25 25 25 24 25 27 28 28 29 30 30 30 30 31 30 29 30 30 29 30 31 31 31
10 10 11 12 11 11 12 14 15 15 16 17 18 20 21 22 23 23 24 25 25 26 26 26 25 26 25 25 26 26 25 26 27 28 29 29 30 30 30 31 31 30 30 29 30 30 31 31 32
10 11 11 11 10 11 11 12 15 16 17 18 19 20 20 21 22 23 24 25 26 27 27 27 27 27 27 26 26 26 27 26 26 27 28 28 28 29 29 30 31 31 30 29 29 29 30 31 31
11 11 10 11 11 11 12 12 15 17 17 18 19 20 20 21 22 23 24 25 26 26 27 27 27 28 28 28 27 27 27 27 27 27 27 27 27 28 28 29 29 30 30 30 30 30 31 31 32
10 10 11 11 10 11 13 13 14 17 17 18 19 19 20 21 21 23 24 24 24 25 26 26 27 28 29 29 28 28 28 28 28 28 28 28 28 28 28 28 29 30 30 31 32 32 32 33 34
10 9 9 9 10 11 15 14 15 17 17 18 19 19 20 20 21 21 22 22 23 23 24 25 26 27 28 28 28 28 28 28 28 28 28 29 28 28 29 30 30 30 32 32 33 33 34 35 35
11 10 10 11 11 12 15 14 15 16 17 17 18 18 18 19 19 19 20 21 22 22 23 24 25 25 26 27 27 27 28 28 28 28 28 29 28 28 29 30 30 31 32 33 34 33 33 34 35
11 12 12 12 12 11 12 15 16 16 16 16 16 17 18 18 18 18 19 20 20 21 22 23 24 25 26 26 27 26 27 28 28 28 29 29 29 29 29 29 31 31 31 32 33 33 34 34 34
12 13 13 11 11 11 12 13 14 14 14 15 15 16 17 17 17 18 19 19 19 20 21 22 23 24 25 25 26 27 27 28 28 28 29 29 29 30 30 30 31 32 32 32 32 33 34 35 35
12 13 12 12 12 12 12 12 15 15 14 14 14 15 16 17 18 19 20 21 21 21 22 23 24 24 25 26 26 27 28 28 28 28 29 29 29 30 30 30 31 31 31 32 32 31 31 32 33
13 13 12 12 12 12 12 13 15 15 14 15 15 16 17 19 19 20 21 22 23 23 24 24 25 25 25 25 26 27 27 27 28 28 29 29 29 29 29 29 30 30 31 31 32 31 31 31 32